KLM274 OTHH-KSFO

Flight info

Callsign KLM274
Flight time N/A
Altitude 34000
Route OTHH/34R LUBET3Z DAVUS L602 TASMI DCT GADSI DCT NINVA/N0493F360 UM860 ODALI UL852 NEGEM T746 ARGES DCT KEKED/N0479F380 DCT KELEL P193 VAGON T710 SUBIX DCT AMISO DCT DOSUR DCT VAXIT DCT ARTEX DCT LAMRO DCT ATSIX/M085F380 DCT 62N020W/M085F400 64N030W 65N040W 65N050W DCT CLAVY DCT MUSVA/N0497F400 DCT DUTUM DCT BODRA DCT 60N091W 55N103W 50N113W/N0487F430 DCT IMB DCT RBL/N0496F410 DCT MRRLO BDEGA4
Aircraft A359/H-SDE2E3GHIJ3J4J5LM1ORWXY/LB1D1

Departure

Time N/A
Airport Hamad International Airport (OTHH)

Arrival

Time 2026-05-04 11:33
Airport San Francisco International Airport (KSFO)
Time Latitude Longitude Altitude Speed Heading
2026-05-03 20:15 27.79391 49.65261 29683 ft 475 kts 316°
2026-05-03 20:15 27.81991 49.62952 29871 ft 475 kts 316°
2026-05-03 20:15 27.84578 49.60641 30051 ft 474 kts 316°
2026-05-03 20:15 27.87154 49.58335 30271 ft 472 kts 316°
2026-05-03 20:16 27.89696 49.56059 30427 ft 472 kts 316°
2026-05-03 20:16 27.92298 49.53727 30575 ft 472 kts 316°
2026-05-03 20:16 27.94875 49.51418 30716 ft 472 kts 315°
2026-05-03 20:16 27.97444 49.49117 30842 ft 472 kts 315°
2026-05-03 20:17 28.00024 49.46805 31011 ft 472 kts 315°
2026-05-03 20:17 28.02590 49.44505 31227 ft 471 kts 315°
2026-05-03 20:17 28.05121 49.42235 31446 ft 469 kts 315°
2026-05-03 20:17 28.07661 49.39927 31627 ft 468 kts 315°
2026-05-03 20:18 28.10191 49.37612 31771 ft 468 kts 314°
2026-05-03 20:18 28.12722 49.35289 31935 ft 468 kts 314°
2026-05-03 20:18 28.15250 49.32970 32089 ft 467 kts 314°
2026-05-03 20:18 28.17777 49.30654 32243 ft 467 kts 314°
2026-05-03 20:19 28.20299 49.28345 32413 ft 467 kts 314°
2026-05-03 20:19 28.22828 49.26030 32587 ft 466 kts 314°
2026-05-03 20:19 28.25344 49.23726 32748 ft 466 kts 314°
2026-05-03 20:19 28.27866 49.21419 32903 ft 465 kts 314°
2026-05-03 20:20 28.30384 49.19116 33057 ft 465 kts 314°
2026-05-03 20:20 28.32902 49.16807 33223 ft 464 kts 314°
2026-05-03 20:20 28.35415 49.14499 33404 ft 464 kts 314°
2026-05-03 20:20 28.37914 49.12204 33631 ft 462 kts 313°
2026-05-03 20:21 28.40504 49.10011 33810 ft 466 kts 317°
2026-05-03 20:21 28.45885 49.05800 33839 ft 474 kts 318°
2026-05-03 20:22 28.51368 49.01599 33840 ft 475 kts 318°
2026-05-03 20:22 28.56853 48.97411 33837 ft 474 kts 318°
2026-05-03 20:23 28.62318 48.93220 33837 ft 474 kts 318°
2026-05-03 20:23 28.67781 48.89015 33838 ft 474 kts 318°
2026-05-03 20:24 28.73229 48.84816 33845 ft 473 kts 317°
2026-05-03 20:24 28.78644 48.80638 33838 ft 472 kts 317°
2026-05-03 20:25 28.84127 48.76421 33839 ft 473 kts 318°
2026-05-03 20:25 28.89591 48.72238 33840 ft 472 kts 317°
2026-05-03 20:26 28.95010 48.68085 33846 ft 472 kts 317°
2026-05-03 20:26 29.00454 48.63904 33849 ft 472 kts 317°
2026-05-03 20:27 29.05909 48.59707 33838 ft 473 kts 317°
2026-05-03 20:27 29.11367 48.55503 33843 ft 473 kts 317°
2026-05-03 20:28 29.16823 48.51297 33849 ft 473 kts 317°
2026-05-03 20:28 29.22285 48.47081 33845 ft 473 kts 317°
2026-05-03 20:29 29.27727 48.42875 33844 ft 472 kts 317°
2026-05-03 20:29 29.33172 48.38658 33845 ft 473 kts 317°
2026-05-03 20:30 29.38619 48.34436 33856 ft 473 kts 317°
2026-05-03 20:30 29.44064 48.30211 33846 ft 472 kts 317°
2026-05-03 20:31 29.49730 48.26271 33841 ft 478 kts 322°
2026-05-03 20:31 29.55560 48.22581 33859 ft 479 kts 322°
2026-05-03 20:32 29.61379 48.18852 33840 ft 478 kts 321°
2026-05-03 20:32 29.67160 48.15065 33838 ft 478 kts 321°
2026-05-03 20:33 29.72925 48.11253 33851 ft 478 kts 320°
2026-05-03 20:33 29.78646 48.07465 33834 ft 477 kts 320°
2026-05-03 20:34 29.84406 48.03648 33836 ft 477 kts 320°
2026-05-03 20:34 29.90160 47.99832 33845 ft 478 kts 320°
2026-05-03 20:35 29.95914 47.96012 33836 ft 477 kts 320°
2026-05-03 20:35 30.01485 47.91961 33835 ft 466 kts 312°
2026-05-03 20:35 30.03860 47.89477 33835 ft 455 kts 305°
2026-05-03 20:36 30.06011 47.86812 33845 ft 453 kts 303°
2026-05-03 20:36 30.10144 47.81371 33835 ft 450 kts 302°
2026-05-03 20:37 30.14215 47.75879 33833 ft 450 kts 302°
2026-05-03 20:37 30.18289 47.70393 33831 ft 450 kts 302°
2026-05-03 20:38 30.22375 47.64916 33831 ft 449 kts 302°
2026-05-03 20:38 30.26451 47.59456 33831 ft 448 kts 302°
2026-05-03 20:39 30.30528 47.53984 33831 ft 449 kts 302°
2026-05-03 20:39 30.34612 47.48494 33833 ft 450 kts 302°
2026-05-03 20:40 30.38692 47.43003 33829 ft 449 kts 302°
2026-05-03 20:40 30.42762 47.37518 33829 ft 449 kts 302°
2026-05-03 20:41 30.46839 47.32014 33844 ft 450 kts 302°
2026-05-03 20:41 30.50914 47.26505 33818 ft 451 kts 302°
2026-05-03 20:42 30.55100 47.21121 33836 ft 458 kts 308°
2026-05-03 20:42 30.57588 47.18759 33820 ft 469 kts 315°
2026-05-03 20:42 30.60419 47.16783 33821 ft 479 kts 322°
2026-05-03 20:43 30.66442 47.13366 33822 ft 484 kts 325°
2026-05-03 20:43 30.72581 47.10122 33825 ft 485 kts 325°
2026-05-03 20:44 30.78723 47.06870 33835 ft 485 kts 325°
2026-05-03 20:44 30.84848 47.03581 33816 ft 485 kts 325°
2026-05-03 20:45 30.90969 47.00271 33818 ft 485 kts 325°
2026-05-03 20:45 30.97092 46.96953 33833 ft 485 kts 325°
2026-05-03 20:46 31.03208 46.93635 33823 ft 485 kts 325°
2026-05-03 20:46 31.09330 46.90310 33821 ft 486 kts 325°
2026-05-03 20:47 31.15449 46.86983 33824 ft 485 kts 325°
2026-05-03 20:47 31.21524 46.83676 33823 ft 484 kts 325°
2026-05-03 20:48 31.27632 46.80344 33820 ft 484 kts 325°
2026-05-03 20:48 31.33727 46.77016 33813 ft 483 kts 324°
2026-05-03 20:49 31.39821 46.73683 33826 ft 483 kts 324°
2026-05-03 20:49 31.45912 46.70347 33839 ft 483 kts 324°
2026-05-03 20:50 31.51992 46.67013 33837 ft 482 kts 324°
2026-05-03 20:50 31.58055 46.63682 33843 ft 482 kts 324°
2026-05-03 20:51 31.64129 46.60340 33845 ft 481 kts 324°
2026-05-03 20:51 31.70180 46.57008 33846 ft 480 kts 324°
2026-05-03 20:52 31.76221 46.53673 33849 ft 481 kts 324°
2026-05-03 20:52 31.82286 46.50321 33856 ft 481 kts 324°
2026-05-03 20:53 31.88340 46.46971 33859 ft 481 kts 324°
2026-05-03 20:53 31.94390 46.43620 33882 ft 481 kts 324°
2026-05-03 20:54 31.99423 46.40828 33872 ft 481 kts 324°
2026-05-03 20:54 32.08501 46.35782 33879 ft 481 kts 324°
2026-05-03 20:55 32.14553 46.32411 33885 ft 481 kts 324°
2026-05-03 20:55 32.21595 46.28484 33886 ft 481 kts 324°
2026-05-03 20:56 32.26661 46.25655 33894 ft 481 kts 324°
2026-05-03 20:56 32.32710 46.22272 33896 ft 481 kts 324°
2026-05-03 20:57 32.38764 46.18880 33894 ft 481 kts 324°
2026-05-03 20:57 32.44809 46.15489 33902 ft 481 kts 324°
2026-05-03 20:58 32.50862 46.12087 33906 ft 482 kts 324°
2026-05-03 20:58 32.56883 46.08700 33911 ft 482 kts 324°
2026-05-03 20:59 32.62977 46.05266 33900 ft 482 kts 324°
2026-05-03 20:59 32.69036 46.01847 33905 ft 482 kts 324°
2026-05-03 21:00 32.74067 45.99004 33908 ft 482 kts 324°
2026-05-03 21:00 32.81146 45.94998 33905 ft 482 kts 324°
2026-05-03 21:01 32.87194 45.91568 33895 ft 482 kts 324°
2026-05-03 21:01 32.93243 45.88134 33903 ft 482 kts 324°
2026-05-03 21:02 32.99293 45.84694 33894 ft 481 kts 324°
2026-05-03 21:02 33.05340 45.81250 33905 ft 481 kts 324°
2026-05-03 21:03 33.11372 45.77811 33908 ft 481 kts 324°
2026-05-03 21:03 33.17404 45.74365 33897 ft 481 kts 324°
2026-05-03 21:04 33.23398 45.70936 33903 ft 480 kts 324°
2026-05-03 21:04 33.29423 45.67483 33897 ft 480 kts 324°
2026-05-03 21:05 33.35445 45.64027 33918 ft 480 kts 324°
2026-05-03 21:05 33.41474 45.60561 33902 ft 480 kts 324°
2026-05-03 21:06 33.47493 45.57095 33881 ft 480 kts 324°
2026-05-03 21:06 33.53521 45.53619 33874 ft 481 kts 324°
2026-05-03 21:07 33.59546 45.50140 33870 ft 481 kts 324°
2026-05-03 21:07 33.65577 45.46652 33869 ft 481 kts 324°
2026-05-03 21:08 33.71603 45.43161 33850 ft 481 kts 324°
2026-05-03 21:08 33.77640 45.39659 33844 ft 481 kts 324°
2026-05-03 21:09 33.83668 45.36156 33824 ft 482 kts 324°
2026-05-03 21:09 33.89718 45.32634 33818 ft 483 kts 324°
2026-05-03 21:10 33.95763 45.29111 33809 ft 483 kts 324°
2026-05-03 21:10 34.01805 45.25584 33795 ft 483 kts 324°
2026-05-03 21:11 34.07857 45.22045 33790 ft 483 kts 324°
2026-05-03 21:11 34.13905 45.18503 33797 ft 483 kts 324°
2026-05-03 21:12 34.19959 45.14948 33790 ft 485 kts 324°
2026-05-03 21:12 34.26035 45.11378 33796 ft 485 kts 324°
2026-05-03 21:13 34.32111 45.07804 33794 ft 486 kts 324°
2026-05-03 21:13 34.38183 45.04225 33806 ft 486 kts 324°
2026-05-03 21:14 34.44272 45.00629 33795 ft 487 kts 324°
2026-05-03 21:14 34.50365 44.97025 33799 ft 488 kts 324°
2026-05-03 21:15 34.56483 44.93400 33798 ft 489 kts 324°
2026-05-03 21:15 34.62596 44.89774 33806 ft 490 kts 324°
2026-05-03 21:16 34.68722 44.86134 33812 ft 490 kts 324°
2026-05-03 21:16 34.74855 44.82483 33809 ft 490 kts 324°
2026-05-03 21:17 34.79943 44.79451 33806 ft 490 kts 324°
2026-05-03 21:17 34.87105 44.75174 33820 ft 490 kts 323°
2026-05-03 21:18 34.93227 44.71510 33803 ft 491 kts 323°
2026-05-03 21:18 34.99360 44.67835 33821 ft 491 kts 323°
2026-05-03 21:19 35.05478 44.64161 33828 ft 491 kts 323°
2026-05-03 21:19 35.11563 44.60503 33828 ft 491 kts 323°
2026-05-03 21:20 35.17755 44.56769 33824 ft 494 kts 323°
2026-05-03 21:20 35.23929 44.53044 33818 ft 494 kts 323°
2026-05-03 21:21 35.30056 44.49343 33827 ft 494 kts 323°
2026-05-03 21:21 35.36215 44.45616 33821 ft 494 kts 323°
2026-05-03 21:22 35.42383 44.41875 33854 ft 494 kts 323°
2026-05-03 21:22 35.48549 44.38127 33818 ft 496 kts 323°
2026-05-03 21:23 35.54736 44.34361 33820 ft 496 kts 323°
2026-05-03 21:23 35.60918 44.30595 33818 ft 496 kts 323°
2026-05-03 21:24 35.67101 44.26821 33825 ft 496 kts 323°
2026-05-03 21:24 35.73295 44.23029 33829 ft 498 kts 323°
2026-05-03 21:25 35.79490 44.19233 33836 ft 498 kts 323°
2026-05-03 21:25 35.85697 44.15422 33834 ft 499 kts 322°
2026-05-03 21:26 35.91905 44.11605 33840 ft 498 kts 322°
2026-05-03 21:26 35.98113 44.07782 33833 ft 499 kts 322°
2026-05-03 21:27 36.04330 44.03944 33819 ft 500 kts 322°
2026-05-03 21:27 36.10542 44.00103 33818 ft 500 kts 322°
2026-05-03 21:28 36.16769 43.96247 33802 ft 500 kts 322°
2026-05-03 21:28 36.22991 43.92387 33802 ft 500 kts 322°
2026-05-03 21:29 36.29218 43.88516 33801 ft 501 kts 322°
2026-05-03 21:29 36.35460 43.84629 33812 ft 502 kts 322°
2026-05-03 21:30 36.41696 43.80740 33822 ft 501 kts 322°
2026-05-03 21:30 36.47925 43.76848 33833 ft 502 kts 322°
2026-05-03 21:31 36.54161 43.72943 33875 ft 502 kts 322°
2026-05-03 21:31 36.60402 43.69029 33858 ft 502 kts 322°
2026-05-03 21:32 36.66630 43.65115 33873 ft 501 kts 322°
2026-05-03 21:32 36.72813 43.61224 33889 ft 501 kts 322°
2026-05-03 21:33 36.79030 43.57303 33890 ft 501 kts 322°
2026-05-03 21:33 36.85247 43.53375 33908 ft 501 kts 323°
2026-05-03 21:34 36.91511 43.49409 33904 ft 502 kts 322°
2026-05-03 21:34 36.97731 43.45463 33921 ft 501 kts 322°
2026-05-03 21:35 37.03952 43.41518 33937 ft 502 kts 323°
2026-05-03 21:35 37.10152 43.37568 33939 ft 503 kts 323°
2026-05-03 21:36 37.16385 43.33593 33948 ft 503 kts 323°
2026-05-03 21:36 37.22634 43.29602 33946 ft 504 kts 323°
2026-05-03 21:37 37.28884 43.25589 33980 ft 503 kts 322°
2026-05-03 21:37 37.31809 43.23306 33942 ft 491 kts 314°
2026-05-03 21:37 37.34379 43.20570 34072 ft 478 kts 305°
2026-05-03 21:38 37.36515 43.17485 34333 ft 460 kts 296°
2026-05-03 21:38 37.38235 43.14146 34526 ft 452 kts 291°
2026-05-03 21:38 37.39786 43.10735 34692 ft 449 kts 290°
2026-05-03 21:38 37.41273 43.07276 34893 ft 449 kts 289°
2026-05-03 21:39 37.43689 43.01503 35204 ft 448 kts 289°
2026-05-03 21:39 37.45134 42.98037 35372 ft 448 kts 289°
2026-05-03 21:39 37.46587 42.94566 35543 ft 448 kts 289°
2026-05-03 21:40 37.48044 42.91103 35734 ft 447 kts 289°
2026-05-03 21:40 37.49504 42.87644 35895 ft 448 kts 289°
2026-05-03 21:40 37.52457 42.80641 35912 ft 456 kts 290°
2026-05-03 21:41 37.55442 42.73577 35899 ft 457 kts 290°
2026-05-03 21:41 37.58425 42.66513 35894 ft 456 kts 289°
2026-05-03 21:42 37.61407 42.59453 35886 ft 457 kts 290°
2026-05-03 21:42 37.64396 42.52348 35895 ft 459 kts 290°
2026-05-03 21:43 37.67376 42.45246 35878 ft 459 kts 290°
2026-05-03 21:43 37.70358 42.38110 35881 ft 459 kts 290°
2026-05-03 21:44 37.73335 42.30971 35865 ft 459 kts 290°
2026-05-03 21:44 37.76322 42.23826 35859 ft 460 kts 290°
2026-05-03 21:45 37.79302 42.16670 35858 ft 460 kts 290°
2026-05-03 21:45 37.82261 42.09540 35853 ft 460 kts 290°
2026-05-03 21:46 37.85233 42.02360 35855 ft 461 kts 290°
2026-05-03 21:46 37.88210 41.95156 35846 ft 463 kts 290°
2026-05-03 21:47 37.91436 41.88054 35841 ft 472 kts 298°
2026-05-03 21:47 37.95637 41.81576 35836 ft 478 kts 303°
2026-05-03 21:48 38.00045 41.75242 35839 ft 480 kts 304°
2026-05-03 21:48 38.04496 41.68896 35836 ft 482 kts 304°
2026-05-03 21:49 38.08943 41.62518 35837 ft 482 kts 303°
2026-05-03 21:49 38.13376 41.56121 35835 ft 484 kts 304°
2026-05-03 21:50 38.17822 41.49680 35834 ft 486 kts 304°
2026-05-03 21:50 38.22278 41.43214 35848 ft 486 kts 304°
2026-05-03 21:51 38.26733 41.36740 35848 ft 487 kts 304°
2026-05-03 21:51 38.31198 41.30237 35842 ft 488 kts 304°
2026-05-03 21:52 38.35664 41.23724 35868 ft 488 kts 304°
2026-05-03 21:52 38.40133 41.17188 35838 ft 490 kts 304°
2026-05-03 21:53 38.44606 41.10633 35850 ft 490 kts 304°
2026-05-03 21:53 38.49065 41.04047 35868 ft 490 kts 303°
2026-05-03 21:54 38.53427 40.97361 35867 ft 491 kts 303°
2026-05-03 21:54 38.57748 40.90689 35870 ft 491 kts 303°
2026-05-03 21:55 38.62126 40.83953 35879 ft 493 kts 303°
2026-05-03 21:55 38.66540 40.77226 35885 ft 495 kts 304°
2026-05-03 21:56 38.70997 40.70501 35893 ft 495 kts 304°
2026-05-03 21:56 38.75464 40.63755 35893 ft 499 kts 304°
2026-05-03 21:57 38.79960 40.56936 35888 ft 501 kts 304°
2026-05-03 21:57 38.84452 40.50108 35909 ft 501 kts 304°
2026-05-03 21:58 38.88948 40.43258 35887 ft 502 kts 304°
2026-05-03 21:58 38.93443 40.36393 35878 ft 502 kts 304°
2026-05-03 21:59 38.97933 40.29517 35882 ft 503 kts 304°
2026-05-03 21:59 39.02425 40.22627 35871 ft 503 kts 304°
2026-05-03 22:00 39.06909 40.15734 35864 ft 503 kts 304°
2026-05-03 22:00 39.11393 40.08825 35877 ft 503 kts 304°
2026-05-03 22:01 39.15872 40.01909 35860 ft 503 kts 304°
2026-05-03 22:01 39.20347 39.94988 35847 ft 502 kts 304°
2026-05-03 22:02 39.24788 39.88096 35855 ft 504 kts 304°
2026-05-03 22:02 39.29265 39.81120 35845 ft 505 kts 304°
2026-05-03 22:03 39.33744 39.74134 35845 ft 506 kts 304°
2026-05-03 22:03 39.38242 39.67109 35843 ft 507 kts 304°
2026-05-03 22:04 39.42734 39.60076 35822 ft 507 kts 304°
2026-05-03 22:04 39.47225 39.53028 35824 ft 507 kts 304°
2026-05-03 22:05 39.51711 39.45970 35808 ft 508 kts 304°
2026-05-03 22:05 39.56165 39.38859 35787 ft 508 kts 303°
2026-05-03 22:06 39.60572 39.31715 35839 ft 508 kts 303°
2026-05-03 22:06 39.64997 39.24541 35822 ft 509 kts 304°
2026-05-03 22:07 39.69422 39.17373 35807 ft 510 kts 304°
2026-05-03 22:07 39.73867 39.10168 35799 ft 511 kts 304°
2026-05-03 22:08 39.78370 39.02975 35789 ft 515 kts 304°
2026-05-03 22:08 39.82906 38.95766 35790 ft 515 kts 304°
2026-05-03 22:09 39.87436 38.88534 35777 ft 516 kts 304°
2026-05-03 22:10 39.94243 38.77614 35774 ft 518 kts 304°
2026-05-03 22:10 39.98776 38.70313 35772 ft 518 kts 305°
2026-05-03 22:11 40.03316 38.62989 35763 ft 520 kts 304°
2026-05-03 22:11 40.07859 38.55641 35759 ft 520 kts 304°
2026-05-03 22:12 40.12394 38.48286 35751 ft 521 kts 305°
2026-05-03 22:12 40.16945 38.40889 35744 ft 523 kts 305°
2026-05-03 22:13 40.21500 38.33470 35750 ft 523 kts 305°
2026-05-03 22:13 40.26045 38.26048 35734 ft 524 kts 305°
2026-05-03 22:14 40.30591 38.18585 35710 ft 523 kts 303°
2026-05-03 22:14 40.34131 38.10406 35731 ft 513 kts 289°
2026-05-03 22:15 40.36856 38.01776 35744 ft 512 kts 287°
2026-05-03 22:15 40.39443 37.93068 35731 ft 512 kts 286°
2026-05-03 22:16 40.42014 37.84370 35750 ft 512 kts 287°
2026-05-03 22:16 40.44606 37.75650 35756 ft 513 kts 287°
2026-05-03 22:17 40.47204 37.66925 35770 ft 513 kts 287°
2026-05-03 22:17 40.49798 37.58187 35783 ft 514 kts 287°
2026-05-03 22:18 40.52391 37.49431 35783 ft 515 kts 287°
2026-05-03 22:18 40.54991 37.40621 35786 ft 517 kts 287°
2026-05-03 22:19 40.57583 37.31807 35799 ft 517 kts 287°
2026-05-03 22:19 40.60169 37.22978 35816 ft 518 kts 287°
2026-05-03 22:20 40.62744 37.14162 35823 ft 520 kts 287°
2026-05-03 22:20 40.65333 37.05270 35823 ft 520 kts 287°
2026-05-03 22:21 40.67918 36.96362 35840 ft 521 kts 287°
2026-05-03 22:21 40.70497 36.87438 35836 ft 522 kts 287°
2026-05-03 22:22 40.73078 36.78477 35836 ft 523 kts 287°
2026-05-03 22:22 40.75651 36.69518 35836 ft 522 kts 287°
2026-05-03 22:23 40.78228 36.60527 35838 ft 527 kts 287°
2026-05-03 22:23 40.80811 36.51457 35822 ft 528 kts 287°
2026-05-03 22:24 40.83390 36.42371 35816 ft 528 kts 287°
2026-05-03 22:24 40.85962 36.33289 35805 ft 530 kts 287°
2026-05-03 22:25 40.88105 36.25695 35809 ft 531 kts 287°
2026-05-03 22:25 40.90681 36.16538 35800 ft 531 kts 287°
2026-05-03 22:26 40.93248 36.07385 35803 ft 531 kts 287°
2026-05-03 22:26 40.95817 35.98214 35793 ft 532 kts 287°
2026-05-03 22:27 40.98372 35.89024 35780 ft 532 kts 287°
2026-05-03 22:27 41.00924 35.79834 35791 ft 532 kts 286°
2026-05-03 22:28 41.03470 35.70618 35785 ft 533 kts 286°
2026-05-03 22:28 41.06009 35.61393 35784 ft 533 kts 286°
2026-05-03 22:29 41.08542 35.52164 35822 ft 533 kts 286°
2026-05-03 22:29 41.11062 35.42952 35776 ft 529 kts 286°
2026-05-03 22:30 41.13557 35.33798 35785 ft 528 kts 286°
2026-05-03 22:30 41.16041 35.24647 35791 ft 528 kts 286°
2026-05-03 22:31 41.18521 35.15477 35800 ft 528 kts 286°
2026-05-03 22:31 41.20993 35.06302 35801 ft 527 kts 286°
2026-05-03 22:32 41.23457 34.97124 35799 ft 527 kts 286°
2026-05-03 22:32 41.25897 34.88000 35814 ft 528 kts 286°
2026-05-03 22:33 41.28359 34.78790 35815 ft 529 kts 286°
2026-05-03 22:33 41.30808 34.69568 35817 ft 529 kts 286°
2026-05-03 22:34 41.33256 34.60333 35813 ft 529 kts 286°
2026-05-03 22:34 41.35714 34.51030 35816 ft 530 kts 286°
2026-05-03 22:35 41.38134 34.41835 35819 ft 530 kts 286°
2026-05-03 22:35 41.40558 34.32589 35832 ft 530 kts 286°
2026-05-03 22:36 41.42969 34.23288 35832 ft 531 kts 286°
2026-05-03 22:36 41.45368 34.13982 35834 ft 531 kts 286°
2026-05-03 22:37 41.47769 34.04683 35853 ft 531 kts 286°
2026-05-03 22:37 41.50162 33.95365 35854 ft 532 kts 286°
2026-05-03 22:38 41.52553 33.86019 35861 ft 532 kts 285°
2026-05-03 22:38 41.54936 33.76676 35859 ft 532 kts 285°
2026-05-03 22:39 41.57314 33.67315 35868 ft 532 kts 285°
2026-05-03 22:39 41.59683 33.57953 35870 ft 532 kts 285°
2026-05-03 22:40 41.62055 33.48586 35874 ft 532 kts 285°
2026-05-03 22:40 41.64409 33.39204 35873 ft 532 kts 285°
2026-05-03 22:41 41.66750 33.29817 35875 ft 532 kts 285°
2026-05-03 22:41 41.69082 33.20441 35875 ft 532 kts 285°
2026-05-03 22:42 41.71412 33.11047 35870 ft 532 kts 285°
2026-05-03 22:42 41.73731 33.01662 35866 ft 531 kts 285°
2026-05-03 22:43 41.76043 32.92270 35860 ft 531 kts 285°
2026-05-03 22:43 41.78348 32.82866 35859 ft 531 kts 285°
2026-05-03 22:44 41.80638 32.73482 35865 ft 530 kts 285°
2026-05-03 22:44 41.82920 32.64088 35867 ft 530 kts 285°
2026-05-03 22:45 41.85177 32.54759 35867 ft 530 kts 285°
2026-05-03 22:45 41.87444 32.45354 35875 ft 530 kts 285°
2026-05-03 22:46 41.89697 32.35944 35873 ft 529 kts 285°
2026-05-03 22:46 41.91950 32.26538 35878 ft 529 kts 285°
2026-05-03 22:47 41.94207 32.17125 35878 ft 529 kts 285°
2026-05-03 22:47 41.96439 32.07693 35882 ft 529 kts 284°
2026-05-03 22:48 41.98657 31.98265 35886 ft 529 kts 284°
2026-05-03 22:48 42.00871 31.88830 35904 ft 529 kts 284°
2026-05-03 22:49 42.03086 31.79399 35894 ft 528 kts 284°
2026-05-03 22:49 42.05286 31.69972 35897 ft 528 kts 284°
2026-05-03 22:50 42.07476 31.60544 35905 ft 528 kts 284°
2026-05-03 22:50 42.09661 31.51106 35905 ft 527 kts 284°
2026-05-03 22:51 42.11836 31.41674 35908 ft 527 kts 284°
2026-05-03 22:51 42.14005 31.32249 35914 ft 527 kts 284°
2026-05-03 22:52 42.16146 31.22871 35921 ft 526 kts 284°
2026-05-03 22:52 42.18300 31.13396 35925 ft 526 kts 284°
2026-05-03 22:53 42.20425 31.04017 35924 ft 526 kts 284°
2026-05-03 22:53 42.22566 30.94527 35940 ft 526 kts 284°
2026-05-03 22:54 42.24683 30.85107 35939 ft 524 kts 284°
2026-05-03 22:54 42.26787 30.75703 35944 ft 523 kts 284°
2026-05-03 22:55 42.28881 30.66302 35946 ft 523 kts 284°
2026-05-03 22:55 42.30965 30.56905 35951 ft 522 kts 283°
2026-05-03 22:56 42.33023 30.47585 35956 ft 521 kts 283°
2026-05-03 22:56 42.35088 30.38196 35955 ft 521 kts 283°
2026-05-03 22:57 42.37140 30.28816 35967 ft 520 kts 283°
2026-05-03 22:57 42.39184 30.19451 35971 ft 517 kts 284°
2026-05-03 22:58 42.41205 30.10135 35977 ft 516 kts 284°
2026-05-03 22:58 42.43214 30.00832 35983 ft 515 kts 284°
2026-05-03 22:59 42.45257 29.91532 35984 ft 515 kts 287°
2026-05-03 22:59 42.48559 29.82929 36004 ft 518 kts 303°
2026-05-03 23:00 42.52809 29.75051 36002 ft 518 kts 306°
2026-05-03 23:00 42.57213 29.67295 36004 ft 519 kts 306°
2026-05-03 23:01 42.61612 29.59529 36011 ft 518 kts 306°
2026-05-03 23:01 42.65960 29.51772 36017 ft 516 kts 306°
2026-05-03 23:02 42.70298 29.43980 36023 ft 517 kts 306°
2026-05-03 23:02 42.74618 29.36197 36025 ft 514 kts 306°
2026-05-03 23:03 42.78911 29.28447 36024 ft 511 kts 306°
2026-05-03 23:03 42.83203 29.20677 36030 ft 513 kts 306°
2026-05-03 23:04 42.87448 29.12975 36039 ft 512 kts 306°
2026-05-03 23:04 42.91743 29.05159 36043 ft 511 kts 306°
2026-05-03 23:05 42.95987 28.97417 36042 ft 513 kts 306°
2026-05-03 23:05 43.00241 28.89636 36050 ft 511 kts 306°
2026-05-03 23:06 43.04495 28.81834 36060 ft 514 kts 306°
2026-05-03 23:06 43.08754 28.73987 36062 ft 512 kts 306°
2026-05-03 23:07 43.12948 28.66156 36065 ft 509 kts 306°
2026-05-03 23:07 43.17131 28.58318 36073 ft 509 kts 306°
2026-05-03 23:08 43.21296 28.50505 36079 ft 507 kts 306°
2026-05-03 23:08 43.25449 28.42700 36088 ft 508 kts 306°
2026-05-03 23:09 43.29603 28.34874 36088 ft 507 kts 306°
2026-05-03 23:09 43.33755 28.27033 36084 ft 507 kts 306°
2026-05-03 23:10 43.37896 28.19192 36086 ft 507 kts 306°
2026-05-03 23:10 43.42033 28.11334 36082 ft 509 kts 306°
2026-05-03 23:11 43.46188 28.03424 36086 ft 510 kts 306°
2026-05-03 23:11 43.49660 27.96796 36087 ft 509 kts 306°
2026-05-03 23:12 43.53773 27.88925 36095 ft 509 kts 306°
2026-05-03 23:12 43.57936 27.80938 36104 ft 510 kts 306°
2026-05-03 23:13 43.62040 27.73043 36108 ft 510 kts 306°
2026-05-03 23:13 43.66189 27.65039 36108 ft 509 kts 306°
2026-05-03 23:14 43.70247 27.57188 36115 ft 502 kts 306°
2026-05-03 23:14 43.74281 27.49362 36121 ft 500 kts 306°
2026-05-03 23:15 43.78316 27.41516 36122 ft 501 kts 306°
2026-05-03 23:15 43.82351 27.33647 36127 ft 501 kts 307°
2026-05-03 23:16 43.86382 27.25766 36127 ft 501 kts 307°
2026-05-03 23:16 43.90405 27.17882 36129 ft 501 kts 307°
2026-05-03 23:17 43.94418 27.09993 36128 ft 501 kts 307°
2026-05-03 23:17 43.98450 27.02048 36132 ft 504 kts 307°
2026-05-03 23:18 44.02477 26.94088 36134 ft 504 kts 307°
2026-05-03 23:18 44.06516 26.86129 36133 ft 503 kts 309°
2026-05-03 23:19 44.11374 26.79206 36131 ft 498 kts 321°
2026-05-03 23:19 44.16705 26.73070 36132 ft 498 kts 323°
2026-05-03 23:20 44.22129 26.67034 36136 ft 499 kts 323°
2026-05-03 23:20 44.27544 26.60987 36129 ft 499 kts 323°
2026-05-03 23:21 44.32947 26.54904 36136 ft 499 kts 323°
2026-05-03 23:21 44.38340 26.48802 36135 ft 499 kts 323°
2026-05-03 23:22 44.46429 26.39618 36132 ft 499 kts 323°
2026-05-03 23:22 44.51799 26.33503 36135 ft 497 kts 323°
2026-05-03 23:23 44.57161 26.27384 36135 ft 497 kts 323°
2026-05-03 23:23 44.62518 26.21257 36130 ft 497 kts 323°
2026-05-03 23:24 44.67862 26.15128 36128 ft 496 kts 323°
2026-05-03 23:24 44.73192 26.09000 36122 ft 494 kts 323°
2026-05-03 23:25 44.78506 26.02876 36138 ft 494 kts 323°
2026-05-03 23:25 44.83822 25.96735 36141 ft 494 kts 323°
2026-05-03 23:26 44.89134 25.90581 36143 ft 492 kts 323°
2026-05-03 23:26 44.94414 25.84451 36163 ft 491 kts 323°
2026-05-03 23:27 44.99687 25.78315 36160 ft 491 kts 323°
2026-05-03 23:27 45.04923 25.72207 36151 ft 492 kts 323°
2026-05-03 23:28 45.10179 25.66058 36163 ft 489 kts 323°
2026-05-03 23:28 45.15414 25.59919 36167 ft 488 kts 323°
2026-05-03 23:29 45.20643 25.53772 36172 ft 488 kts 323°
2026-05-03 23:29 45.25860 25.47626 36165 ft 488 kts 324°
2026-05-03 23:30 45.31044 25.41497 36173 ft 482 kts 324°
2026-05-03 23:30 45.36207 25.35388 36173 ft 483 kts 324°
2026-05-03 23:31 45.41371 25.29261 36172 ft 484 kts 324°
2026-05-03 23:31 45.46530 25.23120 36161 ft 483 kts 324°
2026-05-03 23:32 45.51667 25.16994 36175 ft 480 kts 324°
2026-05-03 23:32 45.56789 25.10867 36172 ft 480 kts 324°
2026-05-03 23:33 45.61906 25.04732 36167 ft 480 kts 324°
2026-05-03 23:33 45.67030 24.98576 36173 ft 482 kts 324°
2026-05-03 23:34 45.72145 24.92412 36174 ft 481 kts 324°
2026-05-03 23:34 45.77263 24.86231 36176 ft 481 kts 324°
2026-05-03 23:35 45.82373 24.80045 36176 ft 481 kts 324°
2026-05-03 23:35 45.87475 24.73854 36167 ft 480 kts 324°
2026-05-03 23:36 45.92559 24.67667 36180 ft 479 kts 324°
2026-05-03 23:36 45.97645 24.61464 36179 ft 479 kts 324°
2026-05-03 23:37 46.02721 24.55256 36178 ft 479 kts 324°
2026-05-03 23:37 46.07796 24.49035 36175 ft 479 kts 324°
2026-05-03 23:38 46.12865 24.42805 36178 ft 479 kts 324°
2026-05-03 23:38 46.17905 24.36597 36178 ft 479 kts 324°
2026-05-03 23:39 46.22970 24.30341 36179 ft 479 kts 323°
2026-05-03 23:39 46.28034 24.24071 36175 ft 479 kts 323°
2026-05-03 23:40 46.33097 24.17785 36178 ft 479 kts 323°
2026-05-03 23:40 46.38152 24.11494 36177 ft 479 kts 323°
2026-05-03 23:41 46.43209 24.05185 36172 ft 479 kts 323°
2026-05-03 23:41 46.48289 23.98831 36167 ft 479 kts 323°
2026-05-03 23:42 46.53334 23.92502 36174 ft 479 kts 323°
2026-05-03 23:42 46.58375 23.86165 36173 ft 480 kts 323°
2026-05-03 23:43 46.63421 23.79804 36178 ft 480 kts 323°
2026-05-03 23:43 46.68465 23.73431 36146 ft 480 kts 323°
2026-05-03 23:44 46.73496 23.67055 36157 ft 479 kts 323°
2026-05-03 23:44 46.78518 23.60675 36157 ft 479 kts 323°
2026-05-03 23:45 46.83540 23.54279 36158 ft 479 kts 323°
2026-05-03 23:45 46.88531 23.47908 36146 ft 480 kts 322°
2026-05-03 23:46 46.93541 23.41496 36180 ft 478 kts 322°
2026-05-03 23:46 46.98545 23.35071 36185 ft 478 kts 322°
2026-05-03 23:47 47.03542 23.28642 36182 ft 478 kts 322°
2026-05-03 23:47 47.08536 23.22201 36164 ft 478 kts 322°
2026-05-03 23:48 47.13517 23.15758 36184 ft 477 kts 322°
2026-05-03 23:48 47.18489 23.09312 36175 ft 476 kts 322°
2026-05-03 23:49 47.23458 23.02851 36178 ft 476 kts 322°
2026-05-03 23:49 47.28416 22.96386 36173 ft 477 kts 321°
2026-05-03 23:50 47.32537 22.91001 36168 ft 476 kts 321°
2026-05-03 23:50 47.38313 22.83434 36164 ft 475 kts 321°
2026-05-03 23:51 47.43250 22.76949 36160 ft 475 kts 321°
2026-05-03 23:51 47.48185 22.70449 36160 ft 475 kts 321°
2026-05-03 23:52 47.53116 22.63937 36157 ft 475 kts 321°
2026-05-03 23:52 47.58039 22.57416 36156 ft 475 kts 321°
2026-05-03 23:53 47.62960 22.50882 36156 ft 475 kts 321°
2026-05-03 23:53 47.67876 22.44339 36154 ft 475 kts 321°
2026-05-03 23:54 47.71955 22.38895 36141 ft 475 kts 321°
2026-05-03 23:54 47.76860 22.32334 36153 ft 474 kts 321°
2026-05-03 23:55 47.81766 22.25754 36150 ft 475 kts 321°
2026-05-03 23:55 47.86667 22.19164 36150 ft 475 kts 321°
2026-05-03 23:56 47.91565 22.12559 36150 ft 475 kts 320°
2026-05-03 23:56 47.96448 22.05958 36150 ft 474 kts 320°
2026-05-03 23:57 48.01328 21.99341 36152 ft 473 kts 320°
2026-05-03 23:57 48.06202 21.92718 36153 ft 473 kts 320°
2026-05-03 23:58 48.11073 21.86079 36153 ft 474 kts 320°
2026-05-03 23:58 48.15942 21.79427 36148 ft 474 kts 320°
2026-05-03 23:59 48.20797 21.72773 36151 ft 472 kts 320°
2026-05-03 23:59 48.25638 21.66122 36149 ft 472 kts 320°
2026-05-04 00:00 48.30483 21.59448 36149 ft 472 kts 320°
2026-05-04 00:00 48.35319 21.52767 36148 ft 472 kts 320°
2026-05-04 00:01 48.40157 21.46069 36147 ft 473 kts 320°
2026-05-04 00:01 48.44993 21.39353 36146 ft 473 kts 320°
2026-05-04 00:02 48.49825 21.32623 36149 ft 473 kts 320°
2026-05-04 00:02 48.54662 21.25880 36155 ft 473 kts 320°
2026-05-04 00:03 48.59509 21.19174 36153 ft 472 kts 320°
2026-05-04 00:03 48.64344 21.12481 36150 ft 471 kts 320°
2026-05-04 00:04 48.69174 21.05768 36152 ft 471 kts 320°
2026-05-04 00:04 48.73992 20.99046 36156 ft 472 kts 319°
2026-05-04 00:05 48.78822 20.92288 36164 ft 472 kts 319°
2026-05-04 00:05 48.83628 20.85543 36168 ft 470 kts 319°
2026-05-04 00:06 48.88430 20.78788 36169 ft 470 kts 319°
2026-05-04 00:06 48.93221 20.72028 36153 ft 471 kts 319°
2026-05-04 00:07 48.98020 20.65240 36170 ft 470 kts 319°
2026-05-04 00:07 49.02771 20.58501 36150 ft 470 kts 318°
2026-05-04 00:08 49.07548 20.51706 36143 ft 470 kts 318°
2026-05-04 00:08 49.12317 20.44903 36138 ft 469 kts 318°
2026-05-04 00:09 49.17083 20.38086 36136 ft 469 kts 318°
2026-05-04 00:09 49.21849 20.31251 36132 ft 469 kts 318°
2026-05-04 00:10 49.26596 20.24424 36155 ft 469 kts 318°
2026-05-04 00:10 49.31345 20.17575 36156 ft 469 kts 318°
2026-05-04 00:11 49.36091 20.10726 36150 ft 469 kts 318°
2026-05-04 00:11 49.40833 20.03853 36141 ft 469 kts 318°
2026-05-04 00:12 49.45568 19.96971 36133 ft 469 kts 317°
2026-05-04 00:12 49.50299 19.90077 36134 ft 469 kts 317°
2026-05-04 00:13 49.55029 19.83168 36133 ft 469 kts 317°
2026-05-04 00:13 49.59712 19.76216 36125 ft 469 kts 315°
2026-05-04 00:14 49.64191 19.68881 36123 ft 469 kts 313°
2026-05-04 00:14 49.68581 19.61431 36110 ft 469 kts 313°
2026-05-04 00:15 49.72961 19.53951 36110 ft 469 kts 313°
2026-05-04 00:15 49.77343 19.46475 36107 ft 469 kts 313°
2026-05-04 00:16 49.81729 19.38984 36100 ft 469 kts 313°
2026-05-04 00:16 49.86110 19.31489 36091 ft 469 kts 313°
2026-05-04 00:17 49.90482 19.23983 36089 ft 469 kts 313°
2026-05-04 00:17 49.94850 19.16458 36078 ft 469 kts 313°
2026-05-04 00:18 49.99217 19.08917 36078 ft 469 kts 312°
2026-05-04 00:18 50.03573 19.01372 36067 ft 469 kts 312°
2026-05-04 00:19 50.07902 18.93851 36061 ft 470 kts 312°
2026-05-04 00:19 50.12256 18.86264 36061 ft 470 kts 312°
2026-05-04 00:20 50.16636 18.78610 36059 ft 470 kts 312°
2026-05-04 00:20 50.20956 18.71038 36059 ft 470 kts 312°
2026-05-04 00:21 50.25325 18.63358 36057 ft 471 kts 311°
2026-05-04 00:21 50.29672 18.55694 36056 ft 471 kts 311°
2026-05-04 00:22 50.33990 18.48057 36053 ft 471 kts 311°
2026-05-04 00:22 50.38327 18.40363 36053 ft 471 kts 311°
2026-05-04 00:23 50.42655 18.32663 36048 ft 471 kts 311°
2026-05-04 00:23 50.46979 18.24947 36039 ft 471 kts 311°
2026-05-04 00:24 50.51300 18.17214 36039 ft 471 kts 311°
2026-05-04 00:24 50.55615 18.09467 36026 ft 471 kts 311°
2026-05-04 00:25 50.59926 18.01705 36031 ft 471 kts 311°
2026-05-04 00:25 50.64234 17.93925 36021 ft 472 kts 310°
2026-05-04 00:26 50.68547 17.86111 36021 ft 473 kts 310°
2026-05-04 00:26 50.72858 17.78277 36012 ft 473 kts 310°
2026-05-04 00:27 50.77164 17.70427 36012 ft 473 kts 310°
2026-05-04 00:27 50.81461 17.62571 36007 ft 473 kts 310°
2026-05-04 00:28 50.85761 17.54686 36007 ft 474 kts 310°
2026-05-04 00:28 50.90068 17.46762 36002 ft 474 kts 310°
2026-05-04 00:29 50.94366 17.38831 35995 ft 474 kts 310°
2026-05-04 00:29 50.98660 17.30882 35988 ft 474 kts 310°
2026-05-04 00:30 51.02952 17.22914 35979 ft 474 kts 309°
2026-05-04 00:30 51.07233 17.14940 35972 ft 475 kts 309°
2026-05-04 00:31 51.11515 17.06938 35967 ft 475 kts 309°
2026-05-04 00:31 51.15796 16.98915 35966 ft 475 kts 309°
2026-05-04 00:32 51.20066 16.90886 35966 ft 475 kts 309°
2026-05-04 00:32 51.24336 16.82834 35972 ft 475 kts 309°
2026-05-04 00:33 51.30731 16.70723 35966 ft 476 kts 309°
2026-05-04 00:34 51.34987 16.62632 35961 ft 475 kts 308°
2026-05-04 00:34 51.39240 16.54520 35955 ft 475 kts 308°
2026-05-04 00:35 51.43483 16.46403 35950 ft 476 kts 308°
2026-05-04 00:35 51.47702 16.38305 35950 ft 476 kts 308°
2026-05-04 00:36 51.51971 16.30085 35945 ft 476 kts 308°
2026-05-04 00:36 51.56176 16.21963 35943 ft 476 kts 308°
2026-05-04 00:37 51.60402 16.13774 35937 ft 476 kts 308°
2026-05-04 00:37 51.64629 16.05557 35940 ft 477 kts 307°
2026-05-04 00:38 51.68857 15.97312 35941 ft 477 kts 307°
2026-05-04 00:38 51.73084 15.89041 35940 ft 477 kts 307°
2026-05-04 00:39 51.76591 15.82159 35940 ft 477 kts 307°
2026-05-04 00:39 51.80803 15.73868 35943 ft 477 kts 307°
2026-05-04 00:40 51.85007 15.65568 35935 ft 477 kts 306°
2026-05-04 00:40 51.89210 15.57241 35934 ft 477 kts 306°
2026-05-04 00:41 51.93402 15.48907 35938 ft 477 kts 306°
2026-05-04 00:41 51.97590 15.40556 35931 ft 477 kts 306°
2026-05-04 00:42 52.01768 15.32197 35940 ft 477 kts 306°
2026-05-04 00:42 52.05948 15.23807 35930 ft 478 kts 306°
2026-05-04 00:43 52.10128 15.15389 35929 ft 478 kts 306°
2026-05-04 00:43 52.14298 15.06963 35925 ft 478 kts 306°
2026-05-04 00:44 52.18465 14.98513 35923 ft 478 kts 306°
2026-05-04 00:44 52.22625 14.90055 35925 ft 478 kts 305°
2026-05-04 00:45 52.26772 14.81591 35924 ft 478 kts 305°
2026-05-04 00:45 52.30910 14.73118 35922 ft 477 kts 305°
2026-05-04 00:46 52.35048 14.64616 35922 ft 477 kts 305°
2026-05-04 00:46 52.39183 14.56126 35916 ft 478 kts 306°
2026-05-04 00:47 52.43590 14.47940 35916 ft 479 kts 309°
2026-05-04 00:47 52.48099 14.39889 35914 ft 479 kts 309°
2026-05-04 00:48 52.52563 14.31789 35915 ft 479 kts 308°
2026-05-04 00:48 52.57000 14.23609 35913 ft 479 kts 308°
2026-05-04 00:49 52.61411 14.15419 35911 ft 479 kts 308°
2026-05-04 00:49 52.65819 14.07208 35908 ft 478 kts 307°
2026-05-04 00:50 52.70211 13.99003 35909 ft 477 kts 307°
2026-05-04 00:50 52.74594 13.90790 35906 ft 477 kts 307°
2026-05-04 00:51 52.78950 13.82601 35906 ft 477 kts 307°
2026-05-04 00:51 52.83351 13.74302 35911 ft 477 kts 307°
2026-05-04 00:52 52.87722 13.66032 35908 ft 477 kts 307°
2026-05-04 00:52 52.92082 13.57753 35907 ft 477 kts 307°
2026-05-04 00:53 52.96412 13.49504 35910 ft 477 kts 306°
2026-05-04 00:53 53.00769 13.41175 35903 ft 477 kts 306°
2026-05-04 00:54 53.05120 13.32832 35902 ft 477 kts 306°
2026-05-04 00:54 53.09463 13.24475 35899 ft 478 kts 306°
2026-05-04 00:55 53.13806 13.16090 35900 ft 478 kts 306°
2026-05-04 00:55 53.18146 13.07682 35896 ft 478 kts 306°
2026-05-04 00:56 53.22473 12.99273 35899 ft 478 kts 306°
2026-05-04 00:56 53.26800 12.90832 35896 ft 478 kts 306°
2026-05-04 00:57 53.31121 12.82376 35913 ft 479 kts 305°
2026-05-04 00:57 53.35446 12.73882 35897 ft 479 kts 305°
2026-05-04 00:58 53.39761 12.65379 35894 ft 479 kts 305°
2026-05-04 00:58 53.44046 12.56907 35898 ft 479 kts 305°
2026-05-04 00:59 53.48349 12.48369 35897 ft 479 kts 305°
2026-05-04 00:59 53.52651 12.39801 35894 ft 481 kts 305°
2026-05-04 01:00 53.56968 12.31176 35894 ft 482 kts 304°
2026-05-04 01:00 53.61276 12.22542 35895 ft 482 kts 304°
2026-05-04 01:01 53.65574 12.13897 35891 ft 481 kts 304°
2026-05-04 01:01 53.69865 12.05235 35889 ft 481 kts 304°
2026-05-04 01:02 53.74153 11.96544 35890 ft 483 kts 304°
2026-05-04 01:02 53.78453 11.87800 35886 ft 484 kts 304°
2026-05-04 01:03 53.82748 11.79040 35888 ft 484 kts 304°
2026-05-04 01:03 53.87038 11.70259 35884 ft 484 kts 304°
2026-05-04 01:04 53.91320 11.61460 35879 ft 483 kts 304°
2026-05-04 01:04 53.95508 11.52586 35874 ft 479 kts 301°
2026-05-04 01:05 53.99253 11.43269 35878 ft 477 kts 298°
2026-05-04 01:05 54.02909 11.33865 35889 ft 477 kts 298°
2026-05-04 01:06 54.06625 11.24486 35873 ft 478 kts 299°
2026-05-04 01:06 54.10367 11.15154 35895 ft 478 kts 299°
2026-05-04 01:07 54.14090 11.05873 35879 ft 476 kts 299°
2026-05-04 01:07 54.17838 10.96487 35873 ft 475 kts 299°
2026-05-04 01:08 54.21545 10.87159 35872 ft 475 kts 299°
2026-05-04 01:08 54.25247 10.77806 35873 ft 475 kts 299°
2026-05-04 01:09 54.28943 10.68433 35889 ft 475 kts 298°
2026-05-04 01:09 54.32599 10.59129 35874 ft 473 kts 298°
2026-05-04 01:10 54.36290 10.49700 35877 ft 473 kts 298°
2026-05-04 01:10 54.39919 10.40392 35871 ft 473 kts 298°
2026-05-04 01:11 54.43568 10.31001 35884 ft 473 kts 298°
2026-05-04 01:11 54.47208 10.21595 35884 ft 473 kts 298°
2026-05-04 01:12 54.50843 10.12167 35883 ft 473 kts 298°
2026-05-04 01:12 54.54493 10.02665 35874 ft 473 kts 298°
2026-05-04 01:13 54.58088 9.93270 35872 ft 472 kts 298°
2026-05-04 01:13 54.61721 9.83740 35867 ft 472 kts 298°
2026-05-04 01:14 54.65299 9.74318 35853 ft 472 kts 298°
2026-05-04 01:14 54.68893 9.64820 35851 ft 472 kts 297°
2026-05-04 01:15 54.72478 9.55306 35852 ft 473 kts 297°
2026-05-04 01:15 54.76060 9.45765 35857 ft 472 kts 297°
2026-05-04 01:16 54.79632 9.36213 35857 ft 472 kts 297°
2026-05-04 01:16 54.83194 9.26649 35859 ft 472 kts 297°
2026-05-04 01:17 54.86768 9.17051 35859 ft 474 kts 299°
2026-05-04 01:17 54.90692 9.07793 35861 ft 478 kts 302°
2026-05-04 01:18 54.94783 8.98668 35855 ft 477 kts 302°
2026-05-04 01:18 54.98817 8.89505 35862 ft 476 kts 302°
2026-05-04 01:19 55.02790 8.80292 35865 ft 476 kts 301°
2026-05-04 01:19 55.06750 8.71025 35870 ft 476 kts 302°
2026-05-04 01:20 55.10701 8.61741 35874 ft 476 kts 302°
2026-05-04 01:20 55.14644 8.52451 35878 ft 476 kts 302°
2026-05-04 01:21 55.18580 8.43144 35866 ft 476 kts 302°
2026-05-04 01:21 55.22510 8.33819 35879 ft 476 kts 301°
2026-05-04 01:22 55.26429 8.24483 35888 ft 475 kts 302°
2026-05-04 01:22 55.30344 8.15120 35892 ft 475 kts 301°
2026-05-04 01:23 55.34244 8.05758 35892 ft 475 kts 301°
2026-05-04 01:23 55.37485 7.97953 35906 ft 475 kts 301°
2026-05-04 01:24 55.41375 7.88549 35903 ft 475 kts 301°
2026-05-04 01:24 55.45252 7.79140 35899 ft 475 kts 301°
2026-05-04 01:25 55.49124 7.69709 35900 ft 475 kts 301°
2026-05-04 01:25 55.52990 7.60255 35903 ft 475 kts 301°
2026-05-04 01:26 55.56851 7.50779 35916 ft 475 kts 301°
2026-05-04 01:26 55.60694 7.41309 35908 ft 474 kts 301°
2026-05-04 01:27 55.64530 7.31822 35914 ft 474 kts 301°
2026-05-04 01:27 55.68358 7.22314 35917 ft 474 kts 301°
2026-05-04 01:28 55.72174 7.12801 35924 ft 474 kts 301°
2026-05-04 01:28 55.75990 7.03252 35923 ft 474 kts 301°
2026-05-04 01:29 55.79791 6.93703 35916 ft 474 kts 301°
2026-05-04 01:29 55.83563 6.84189 35910 ft 474 kts 301°
2026-05-04 01:30 55.87351 6.74597 35929 ft 474 kts 301°
2026-05-04 01:30 55.91130 6.64991 35926 ft 474 kts 301°
2026-05-04 01:31 55.94929 6.55295 35928 ft 474 kts 301°
2026-05-04 01:31 55.98672 6.45707 35927 ft 474 kts 300°
2026-05-04 01:32 56.02453 6.35980 35936 ft 474 kts 300°
2026-05-04 01:32 56.06180 6.26354 35935 ft 473 kts 300°
2026-05-04 01:33 56.09924 6.16646 35940 ft 473 kts 300°
2026-05-04 01:33 56.13656 6.06931 35938 ft 473 kts 300°
2026-05-04 01:34 56.17385 5.97188 35941 ft 473 kts 300°
2026-05-04 01:34 56.21099 5.87442 35942 ft 473 kts 300°
2026-05-04 01:35 56.24807 5.77674 35943 ft 473 kts 300°
2026-05-04 01:35 56.28507 5.67886 35947 ft 473 kts 300°
2026-05-04 01:36 56.32199 5.58080 35951 ft 473 kts 300°
2026-05-04 01:36 56.35885 5.48252 35949 ft 473 kts 300°
2026-05-04 01:37 56.39558 5.38421 35950 ft 473 kts 300°
2026-05-04 01:37 56.43228 5.28555 35947 ft 473 kts 300°
2026-05-04 01:38 56.46888 5.18675 35972 ft 473 kts 300°
2026-05-04 01:38 56.50534 5.08793 35934 ft 472 kts 300°
2026-05-04 01:39 56.54173 4.98893 35953 ft 472 kts 300°
2026-05-04 01:39 56.57727 4.88882 35952 ft 471 kts 298°
2026-05-04 01:40 56.61206 4.78809 35945 ft 471 kts 298°
2026-05-04 01:40 56.64687 4.68718 35952 ft 471 kts 298°
2026-05-04 01:41 56.68172 4.58628 35974 ft 471 kts 299°
2026-05-04 01:41 56.71655 4.48523 35970 ft 471 kts 299°
2026-05-04 01:42 56.75133 4.38392 35978 ft 471 kts 299°
2026-05-04 01:42 56.78574 4.28321 35967 ft 471 kts 299°
2026-05-04 01:43 56.82049 4.18110 35971 ft 471 kts 299°
2026-05-04 01:43 56.85470 4.08011 35975 ft 471 kts 299°
2026-05-04 01:44 56.88903 3.97836 35974 ft 470 kts 299°
2026-05-04 01:44 56.92331 3.87651 35970 ft 470 kts 298°
2026-05-04 01:45 56.95747 3.77433 35969 ft 470 kts 298°
2026-05-04 01:45 57.00849 3.62086 35974 ft 470 kts 298°
2026-05-04 01:46 57.04232 3.51817 35982 ft 470 kts 297°
2026-05-04 01:46 57.07351 3.41302 35990 ft 468 kts 295°
2026-05-04 01:47 57.10361 3.30703 35982 ft 467 kts 295°
2026-05-04 01:47 57.13393 3.20122 35989 ft 467 kts 296°
2026-05-04 01:48 57.16447 3.09549 35989 ft 467 kts 296°
2026-05-04 01:48 57.19499 2.98979 35976 ft 467 kts 296°
2026-05-04 01:49 57.22541 2.88392 35969 ft 466 kts 296°
2026-05-04 01:49 57.25566 2.77811 35946 ft 466 kts 296°
2026-05-04 01:50 57.28577 2.67228 35944 ft 465 kts 296°
2026-05-04 01:50 57.31577 2.56634 35964 ft 465 kts 296°
2026-05-04 01:51 57.34573 2.46002 35966 ft 465 kts 295°
2026-05-04 01:51 57.37555 2.35377 35975 ft 464 kts 295°
2026-05-04 01:52 57.40521 2.24756 35977 ft 464 kts 295°
2026-05-04 01:52 57.43480 2.14110 35993 ft 464 kts 295°
2026-05-04 01:53 57.46432 2.03442 35993 ft 464 kts 295°
2026-05-04 01:53 57.49373 1.92763 35990 ft 464 kts 295°
2026-05-04 01:54 57.52308 1.82056 35990 ft 464 kts 295°
2026-05-04 01:54 57.55226 1.71356 35990 ft 464 kts 295°
2026-05-04 01:55 57.58135 1.60647 35993 ft 464 kts 295°
2026-05-04 01:55 57.61040 1.49899 35987 ft 464 kts 295°
2026-05-04 01:56 57.63930 1.39156 35990 ft 463 kts 295°
2026-05-04 01:56 57.66807 1.28409 35990 ft 461 kts 295°
2026-05-04 01:57 57.69657 1.17714 35990 ft 459 kts 295°
2026-05-04 01:57 57.72485 1.07048 35991 ft 457 kts 295°
2026-05-04 01:58 57.75299 0.96387 35991 ft 457 kts 295°
2026-05-04 01:58 57.78105 0.85705 35990 ft 457 kts 295°
2026-05-04 01:59 57.80903 0.75001 35990 ft 457 kts 295°
2026-05-04 01:59 57.83690 0.64290 35988 ft 457 kts 295°
2026-05-04 02:00 57.86467 0.53560 35989 ft 455 kts 295°
2026-05-04 02:00 57.89218 0.42884 35994 ft 454 kts 295°
2026-05-04 02:01 57.91960 0.32199 35991 ft 454 kts 295°
2026-05-04 02:01 57.94689 0.21509 35987 ft 452 kts 295°
2026-05-04 02:02 57.97402 0.10831 35990 ft 452 kts 295°
2026-05-04 02:02 58.00101 0.00152 35989 ft 452 kts 295°
2026-05-04 02:03 58.02791 -0.10539 35993 ft 451 kts 295°
2026-05-04 02:03 58.05465 -0.21221 35988 ft 450 kts 295°
2026-05-04 02:04 58.08132 -0.31926 35987 ft 450 kts 295°
2026-05-04 02:04 58.10788 -0.42639 35987 ft 450 kts 295°
2026-05-04 02:05 58.13437 -0.53376 35989 ft 450 kts 295°
2026-05-04 02:05 58.16075 -0.64118 35984 ft 450 kts 294°
2026-05-04 02:06 58.18261 -0.73062 35988 ft 450 kts 294°
2026-05-04 02:06 58.20880 -0.83824 35993 ft 450 kts 294°
2026-05-04 02:07 58.23488 -0.94592 35988 ft 448 kts 294°
2026-05-04 02:07 58.26082 -1.05357 35985 ft 448 kts 294°
2026-05-04 02:08 58.28665 -1.16133 35982 ft 448 kts 294°
2026-05-04 02:08 58.31239 -1.26922 35977 ft 448 kts 294°
2026-05-04 02:09 58.33796 -1.37697 35982 ft 446 kts 294°
2026-05-04 02:09 58.36341 -1.48472 35979 ft 446 kts 294°
2026-05-04 02:10 58.38874 -1.59245 35982 ft 446 kts 294°
2026-05-04 02:10 58.41401 -1.70054 35982 ft 446 kts 294°
2026-05-04 02:11 58.43915 -1.80861 35979 ft 446 kts 294°
2026-05-04 02:11 58.46421 -1.91687 36007 ft 445 kts 295°
2026-05-04 02:12 58.48910 -2.02492 35976 ft 443 kts 294°
2026-05-04 02:12 58.51385 -2.13295 35977 ft 443 kts 294°
2026-05-04 02:13 58.53847 -2.24091 35980 ft 443 kts 294°
2026-05-04 02:13 58.56304 -2.34923 35979 ft 443 kts 294°
2026-05-04 02:14 58.58749 -2.45757 35974 ft 443 kts 294°
2026-05-04 02:14 58.61182 -2.56598 35972 ft 442 kts 295°
2026-05-04 02:15 58.63583 -2.67349 35974 ft 441 kts 295°
2026-05-04 02:15 58.65986 -2.78160 35979 ft 440 kts 295°
2026-05-04 02:16 58.68384 -2.89008 35980 ft 440 kts 295°
2026-05-04 02:16 58.70769 -2.99851 35980 ft 440 kts 294°
2026-05-04 02:17 58.73146 -3.10716 35971 ft 440 kts 294°
2026-05-04 02:17 58.75509 -3.21574 35970 ft 439 kts 295°
2026-05-04 02:18 58.77857 -3.32427 35970 ft 438 kts 295°
2026-05-04 02:18 58.80191 -3.43259 35970 ft 437 kts 295°
2026-05-04 02:19 58.82515 -3.54107 35971 ft 438 kts 295°
2026-05-04 02:19 58.84831 -3.64974 35971 ft 438 kts 295°
2026-05-04 02:20 58.87137 -3.75850 35971 ft 438 kts 295°
2026-05-04 02:20 58.89432 -3.86734 35970 ft 437 kts 295°
2026-05-04 02:21 58.91717 -3.97624 35974 ft 436 kts 295°
2026-05-04 02:21 58.93990 -4.08513 35974 ft 436 kts 295°
2026-05-04 02:22 58.96252 -4.19414 35996 ft 436 kts 295°
2026-05-04 02:22 58.98518 -4.30389 35970 ft 435 kts 294°
2026-05-04 02:23 59.00744 -4.41229 35974 ft 435 kts 294°
2026-05-04 02:23 59.02971 -4.52136 35971 ft 435 kts 294°
2026-05-04 02:24 59.05194 -4.63079 35974 ft 435 kts 294°
2026-05-04 02:24 59.07404 -4.74016 35971 ft 435 kts 294°
2026-05-04 02:25 59.09609 -4.84995 35969 ft 435 kts 294°
2026-05-04 02:25 59.11803 -4.95974 35974 ft 436 kts 294°
2026-05-04 02:26 59.13990 -5.06979 35971 ft 436 kts 294°
2026-05-04 02:26 59.16167 -5.17994 35963 ft 436 kts 294°
2026-05-04 02:27 59.18335 -5.29024 35968 ft 436 kts 294°
2026-05-04 02:27 59.20497 -5.40091 35971 ft 436 kts 294°
2026-05-04 02:28 59.22643 -5.51136 35968 ft 434 kts 294°
2026-05-04 02:28 59.24772 -5.62158 35969 ft 433 kts 294°
2026-05-04 02:29 59.26889 -5.73175 35966 ft 433 kts 293°
2026-05-04 02:29 59.28999 -5.84214 35962 ft 433 kts 293°
2026-05-04 02:30 59.31098 -5.95260 35969 ft 433 kts 293°
2026-05-04 02:30 59.33189 -6.06328 35969 ft 433 kts 293°
2026-05-04 02:31 59.35271 -6.17411 35958 ft 433 kts 293°
2026-05-04 02:31 59.37342 -6.28503 35960 ft 433 kts 293°
2026-05-04 02:32 59.39407 -6.39623 35960 ft 434 kts 292°
2026-05-04 02:32 59.41460 -6.50747 35945 ft 433 kts 292°
2026-05-04 02:33 59.43505 -6.61889 35998 ft 433 kts 292°
2026-05-04 02:33 59.45535 -6.73017 35954 ft 431 kts 292°
2026-05-04 02:34 59.47545 -6.84096 35955 ft 430 kts 292°
2026-05-04 02:34 59.49548 -6.95202 35955 ft 430 kts 292°
2026-05-04 02:35 59.51539 -7.06309 35957 ft 430 kts 292°
2026-05-04 02:35 59.53521 -7.17430 35947 ft 430 kts 292°
2026-05-04 02:36 59.55495 -7.28574 35950 ft 431 kts 292°
2026-05-04 02:36 59.57459 -7.39726 35949 ft 431 kts 291°
2026-05-04 02:37 59.59415 -7.50901 35949 ft 431 kts 291°
2026-05-04 02:37 59.61360 -7.62079 35944 ft 431 kts 291°
2026-05-04 02:38 59.63297 -7.73281 35944 ft 431 kts 291°
2026-05-04 02:38 59.65223 -7.84488 35981 ft 431 kts 291°
2026-05-04 02:39 59.67122 -7.95607 35948 ft 428 kts 291°
2026-05-04 02:39 59.69017 -8.06771 35946 ft 428 kts 291°
2026-05-04 02:40 59.70904 -8.17948 35944 ft 428 kts 291°
2026-05-04 02:40 59.72779 -8.29130 35942 ft 428 kts 291°
2026-05-04 02:41 59.74644 -8.40321 35941 ft 428 kts 291°
2026-05-04 02:41 59.76501 -8.51531 35945 ft 428 kts 290°
2026-05-04 02:42 59.78347 -8.62743 35937 ft 427 kts 290°
2026-05-04 02:42 59.80182 -8.73963 35941 ft 427 kts 290°
2026-05-04 02:43 59.82009 -8.85202 35938 ft 427 kts 290°
2026-05-04 02:43 59.83824 -8.96437 35938 ft 427 kts 290°
2026-05-04 02:44 59.85632 -9.07705 35941 ft 427 kts 290°
2026-05-04 02:44 59.87425 -9.18949 35934 ft 426 kts 290°
2026-05-04 02:45 59.89205 -9.30184 35928 ft 425 kts 289°
2026-05-04 02:45 59.90972 -9.41408 35936 ft 425 kts 289°
2026-05-04 02:46 59.92730 -9.52651 35936 ft 425 kts 289°
2026-05-04 02:46 59.94477 -9.63892 35936 ft 425 kts 289°
2026-05-04 02:47 59.96216 -9.75157 35933 ft 425 kts 289°
2026-05-04 02:47 59.97947 -9.86447 35938 ft 425 kts 289°
2026-05-04 02:48 59.99708 -9.97705 35902 ft 424 kts 292°
2026-05-04 02:48 60.02126 -10.08444 35933 ft 424 kts 296°
2026-05-04 02:49 60.04303 -10.17248 35935 ft 425 kts 297°
2026-05-04 02:49 60.06958 -10.27821 35957 ft 425 kts 297°
2026-05-04 02:50 60.09593 -10.38374 35938 ft 423 kts 297°
2026-05-04 02:50 60.12204 -10.48927 35933 ft 422 kts 297°
2026-05-04 02:51 60.14801 -10.59494 35933 ft 422 kts 297°
2026-05-04 02:51 60.17392 -10.70090 35933 ft 422 kts 296°
2026-05-04 02:52 60.19976 -10.80705 35933 ft 424 kts 296°
2026-05-04 02:52 60.22561 -10.91374 35933 ft 425 kts 296°
2026-05-04 02:53 60.25139 -11.02068 35933 ft 425 kts 296°
2026-05-04 02:53 60.27707 -11.12771 35938 ft 425 kts 296°
2026-05-04 02:54 60.30266 -11.23493 35935 ft 423 kts 296°
2026-05-04 02:54 60.32799 -11.34157 35939 ft 421 kts 296°
2026-05-04 02:55 60.36582 -11.50179 35905 ft 421 kts 295°
2026-05-04 02:56 60.39101 -11.60917 35936 ft 424 kts 295°
2026-05-04 02:56 60.41619 -11.71704 35935 ft 424 kts 295°
2026-05-04 02:57 60.44132 -11.82521 35938 ft 424 kts 295°
2026-05-04 02:57 60.46632 -11.93340 35936 ft 424 kts 295°
2026-05-04 02:58 60.49128 -12.04194 35938 ft 424 kts 295°
2026-05-04 02:58 60.51611 -12.15046 35939 ft 423 kts 295°
2026-05-04 02:59 60.54075 -12.25871 35936 ft 422 kts 295°
2026-05-04 02:59 60.56531 -12.36713 35944 ft 424 kts 294°
2026-05-04 03:00 60.58987 -12.47616 35945 ft 424 kts 294°
2026-05-04 03:00 60.61435 -12.58539 35950 ft 424 kts 294°
2026-05-04 03:01 60.63876 -12.69484 35949 ft 424 kts 294°
2026-05-04 03:01 60.66291 -12.80373 35947 ft 424 kts 294°
2026-05-04 03:02 60.68731 -12.91427 35949 ft 424 kts 294°
2026-05-04 03:02 60.71145 -13.02421 35973 ft 424 kts 294°
2026-05-04 03:03 60.73542 -13.13394 35949 ft 423 kts 294°
2026-05-04 03:03 60.75916 -13.24322 35952 ft 423 kts 294°
2026-05-04 03:04 60.78296 -13.35338 35952 ft 423 kts 293°
2026-05-04 03:04 60.80666 -13.46363 35952 ft 423 kts 293°
2026-05-04 03:05 60.83028 -13.57410 35959 ft 423 kts 293°
2026-05-04 03:05 60.85384 -13.68482 35957 ft 423 kts 293°
2026-05-04 03:06 60.87729 -13.79566 35957 ft 423 kts 293°
2026-05-04 03:06 60.90064 -13.90661 35951 ft 424 kts 293°
2026-05-04 03:07 60.92402 -14.01832 35963 ft 426 kts 293°
2026-05-04 03:07 60.94733 -14.13031 35960 ft 426 kts 292°
2026-05-04 03:08 60.97056 -14.24247 35960 ft 426 kts 292°
2026-05-04 03:08 60.99372 -14.35497 35960 ft 426 kts 292°
2026-05-04 03:09 61.01675 -14.46745 35962 ft 426 kts 292°
2026-05-04 03:09 61.03971 -14.58017 35964 ft 426 kts 292°
2026-05-04 03:10 61.06257 -14.69307 35962 ft 426 kts 292°
2026-05-04 03:10 61.08534 -14.80612 35966 ft 426 kts 292°
2026-05-04 03:11 61.10800 -14.91927 35981 ft 426 kts 292°
2026-05-04 03:11 61.13051 -15.03231 35971 ft 425 kts 292°
2026-05-04 03:12 61.15291 -15.14540 35973 ft 424 kts 292°
2026-05-04 03:12 61.17522 -15.25871 35974 ft 424 kts 292°
2026-05-04 03:13 61.19742 -15.37207 35972 ft 424 kts 292°
2026-05-04 03:13 61.21950 -15.48550 35971 ft 424 kts 291°
2026-05-04 03:14 61.24156 -15.59941 35975 ft 426 kts 291°
2026-05-04 03:14 61.26345 -15.71318 35974 ft 427 kts 291°
2026-05-04 03:15 61.28536 -15.82764 35976 ft 427 kts 291°
2026-05-04 03:15 61.30720 -15.94245 35980 ft 426 kts 291°
2026-05-04 03:16 61.32883 -16.05682 35982 ft 424 kts 291°
2026-05-04 03:16 61.35037 -16.17132 35979 ft 424 kts 291°
2026-05-04 03:17 61.37177 -16.28582 35979 ft 424 kts 291°
2026-05-04 03:17 61.39313 -16.40071 35979 ft 426 kts 290°
2026-05-04 03:18 61.41446 -16.51618 35992 ft 427 kts 290°
2026-05-04 03:18 61.43576 -16.63216 35991 ft 427 kts 290°
2026-05-04 03:19 61.45696 -16.74828 35988 ft 427 kts 290°
2026-05-04 03:19 61.47804 -16.86447 35989 ft 427 kts 290°
2026-05-04 03:20 61.49898 -16.98052 35991 ft 426 kts 290°
2026-05-04 03:20 61.51977 -17.09650 35990 ft 425 kts 290°
2026-05-04 03:21 61.54043 -17.21244 35989 ft 426 kts 290°
2026-05-04 03:21 61.56113 -17.32933 35993 ft 428 kts 289°
2026-05-04 03:22 61.58178 -17.44662 35994 ft 428 kts 289°
2026-05-04 03:22 61.60231 -17.56401 36001 ft 429 kts 289°
2026-05-04 03:23 61.62274 -17.68153 35998 ft 429 kts 289°
2026-05-04 03:23 61.64311 -17.79943 35996 ft 429 kts 289°
2026-05-04 03:24 61.66337 -17.91750 36019 ft 429 kts 289°
2026-05-04 03:24 61.68345 -18.03519 35975 ft 426 kts 289°
2026-05-04 03:25 61.70345 -18.15313 36001 ft 429 kts 289°
2026-05-04 03:25 61.72341 -18.27168 36007 ft 429 kts 289°
2026-05-04 03:26 61.74316 -18.38970 36008 ft 429 kts 289°
2026-05-04 03:26 61.76304 -18.50929 36004 ft 429 kts 288°
2026-05-04 03:27 61.78260 -18.62768 36009 ft 429 kts 288°
2026-05-04 03:27 61.80217 -18.74692 36010 ft 429 kts 288°
2026-05-04 03:28 61.82174 -18.86698 36010 ft 429 kts 288°
2026-05-04 03:28 61.84101 -18.98595 36016 ft 430 kts 288°
2026-05-04 03:29 61.86031 -19.10595 36015 ft 430 kts 288°
2026-05-04 03:29 61.87963 -19.22680 36015 ft 430 kts 288°
2026-05-04 03:30 61.89861 -19.34639 36021 ft 430 kts 288°
2026-05-04 03:30 61.91760 -19.46684 36020 ft 430 kts 288°
2026-05-04 03:31 61.93648 -19.58737 36027 ft 430 kts 288°
2026-05-04 03:31 61.95526 -19.70811 36026 ft 430 kts 287°
2026-05-04 03:32 61.97396 -19.82917 36025 ft 432 kts 287°
2026-05-04 03:32 61.99266 -19.95077 36066 ft 433 kts 288°
2026-05-04 03:33 62.01726 -20.06757 36035 ft 433 kts 295°
2026-05-04 03:33 62.04514 -20.18115 36031 ft 433 kts 296°
2026-05-04 03:34 62.06888 -20.27593 36033 ft 433 kts 296°
2026-05-04 03:34 62.09717 -20.38935 36039 ft 433 kts 296°
2026-05-04 03:35 62.12523 -20.50293 36039 ft 433 kts 296°
2026-05-04 03:35 62.15318 -20.61693 36039 ft 433 kts 296°
2026-05-04 03:36 62.18101 -20.73104 36023 ft 432 kts 296°
2026-05-04 03:36 62.20880 -20.84561 36048 ft 434 kts 296°
2026-05-04 03:37 62.23652 -20.96044 36048 ft 434 kts 295°
2026-05-04 03:37 62.26397 -21.07477 36048 ft 434 kts 295°
2026-05-04 03:38 62.29165 -21.19068 36055 ft 434 kts 295°
2026-05-04 03:38 62.31890 -21.30536 36056 ft 434 kts 295°
2026-05-04 03:39 62.34622 -21.42096 36057 ft 434 kts 295°
2026-05-04 03:39 62.37346 -21.53684 36061 ft 434 kts 295°
2026-05-04 03:40 62.40059 -21.65293 36060 ft 433 kts 295°
2026-05-04 03:40 62.42762 -21.76918 36056 ft 434 kts 295°
2026-05-04 03:41 62.45462 -21.88591 36062 ft 435 kts 295°
2026-05-04 03:41 62.48155 -22.00295 36072 ft 435 kts 295°
2026-05-04 03:42 62.50839 -22.12026 36076 ft 435 kts 295°
2026-05-04 03:42 62.53514 -22.23782 36073 ft 435 kts 295°
2026-05-04 03:43 62.56176 -22.35547 36078 ft 435 kts 295°
2026-05-04 03:43 62.58831 -22.47346 36081 ft 435 kts 295°
2026-05-04 03:44 62.61475 -22.59162 36082 ft 435 kts 295°
2026-05-04 03:44 62.64114 -22.71017 36080 ft 435 kts 294°
2026-05-04 03:45 62.66742 -22.82892 36088 ft 437 kts 294°
2026-05-04 03:45 62.69370 -22.94831 36086 ft 438 kts 294°
2026-05-04 03:46 62.71996 -23.06828 36090 ft 438 kts 294°
2026-05-04 03:46 62.74610 -23.18842 36086 ft 438 kts 294°
2026-05-04 03:47 62.77211 -23.30863 36087 ft 438 kts 294°
2026-05-04 03:47 62.79789 -23.42842 36086 ft 438 kts 294°
2026-05-04 03:48 62.82386 -23.54986 36086 ft 438 kts 294°
2026-05-04 03:48 62.84942 -23.67005 36097 ft 438 kts 294°
2026-05-04 03:49 62.87503 -23.79115 36100 ft 438 kts 294°
2026-05-04 03:49 62.90055 -23.91255 36099 ft 438 kts 294°
2026-05-04 03:50 62.92596 -24.03411 36107 ft 438 kts 294°
2026-05-04 03:50 62.95127 -24.15598 36099 ft 439 kts 294°
2026-05-04 03:51 62.97654 -24.27832 36102 ft 440 kts 294°
2026-05-04 03:51 63.00172 -24.40092 36099 ft 439 kts 293°
2026-05-04 03:52 63.02678 -24.52369 36105 ft 439 kts 293°
2026-05-04 03:52 63.05170 -24.64651 36105 ft 439 kts 293°
2026-05-04 03:53 63.07657 -24.76980 36105 ft 439 kts 293°
2026-05-04 03:53 63.10130 -24.89315 36097 ft 440 kts 293°
2026-05-04 03:54 63.12596 -25.01692 36112 ft 440 kts 293°
2026-05-04 03:54 63.15053 -25.14097 36110 ft 440 kts 293°
2026-05-04 03:55 63.17484 -25.26449 36109 ft 440 kts 293°
2026-05-04 03:55 63.19936 -25.38978 36113 ft 440 kts 292°
2026-05-04 03:56 63.22360 -25.51445 36114 ft 440 kts 292°
2026-05-04 03:56 63.24756 -25.63842 36112 ft 440 kts 292°
2026-05-04 03:57 63.27157 -25.76347 36115 ft 440 kts 292°
2026-05-04 03:57 63.29548 -25.88877 36129 ft 440 kts 292°
2026-05-04 03:58 63.33108 -26.07675 36116 ft 440 kts 292°
2026-05-04 03:58 63.35469 -26.20241 36116 ft 440 kts 292°
2026-05-04 03:59 63.37822 -26.32844 36116 ft 440 kts 292°
2026-05-04 03:59 63.40161 -26.45453 36116 ft 440 kts 291°
2026-05-04 04:00 63.42489 -26.58080 36119 ft 440 kts 291°
2026-05-04 04:00 63.44807 -26.70737 36114 ft 440 kts 291°
2026-05-04 04:01 63.47103 -26.83358 36113 ft 438 kts 291°
2026-05-04 04:01 63.49386 -26.95984 36117 ft 437 kts 291°
2026-05-04 04:02 63.51654 -27.08610 36111 ft 437 kts 291°
2026-05-04 04:02 63.53920 -27.21305 36115 ft 439 kts 291°
2026-05-04 04:03 63.56176 -27.34033 36116 ft 439 kts 291°
2026-05-04 04:03 63.58423 -27.46788 36116 ft 439 kts 291°
2026-05-04 04:04 63.60657 -27.59552 36128 ft 439 kts 291°
2026-05-04 04:04 63.62874 -27.72311 36106 ft 437 kts 291°
2026-05-04 04:05 63.65070 -27.85032 36106 ft 436 kts 290°
2026-05-04 04:05 63.67258 -27.97786 36103 ft 436 kts 290°
2026-05-04 04:06 63.69432 -28.10548 36101 ft 436 kts 290°
2026-05-04 04:06 63.71598 -28.23349 36108 ft 437 kts 290°
2026-05-04 04:07 63.73757 -28.36196 36110 ft 438 kts 290°
2026-05-04 04:07 63.75904 -28.49058 36127 ft 438 kts 290°
2026-05-04 04:08 63.78029 -28.61875 36108 ft 438 kts 290°
2026-05-04 04:08 63.80151 -28.74765 36103 ft 437 kts 290°
2026-05-04 04:09 63.82262 -28.87677 36101 ft 437 kts 290°
2026-05-04 04:09 63.84363 -29.00615 36099 ft 437 kts 289°
2026-05-04 04:10 63.86451 -29.13570 36096 ft 437 kts 289°
2026-05-04 04:10 63.88529 -29.26546 36097 ft 437 kts 289°
2026-05-04 04:11 63.90596 -29.39550 36089 ft 438 kts 289°
2026-05-04 04:11 63.92651 -29.52568 36078 ft 437 kts 289°
2026-05-04 04:12 63.94690 -29.65580 36074 ft 437 kts 289°
2026-05-04 04:12 63.96719 -29.78621 36069 ft 437 kts 289°
2026-05-04 04:13 63.98738 -29.91688 36087 ft 437 kts 289°
2026-05-04 04:13 64.00731 -30.04757 36088 ft 437 kts 288°
2026-05-04 04:14 64.02563 -30.17984 36083 ft 437 kts 287°
2026-05-04 04:14 64.04331 -30.31244 36082 ft 437 kts 287°
2026-05-04 04:15 64.06107 -30.44509 36083 ft 436 kts 287°
2026-05-04 04:15 64.07885 -30.57761 36076 ft 436 kts 287°
2026-05-04 04:16 64.09654 -30.71001 36078 ft 436 kts 287°
2026-05-04 04:16 64.11413 -30.84280 36078 ft 436 kts 287°
2026-05-04 04:17 64.13160 -30.97582 36077 ft 436 kts 286°
2026-05-04 04:17 64.14599 -31.08631 36077 ft 436 kts 286°
2026-05-04 04:18 64.16324 -31.21966 36081 ft 436 kts 286°
2026-05-04 04:18 64.18033 -31.35296 36089 ft 436 kts 286°
2026-05-04 04:19 64.19728 -31.48621 36077 ft 434 kts 286°
2026-05-04 04:19 64.21407 -31.61929 36082 ft 434 kts 286°
2026-05-04 04:20 64.23074 -31.75259 36084 ft 435 kts 285°
2026-05-04 04:20 64.24732 -31.88638 36083 ft 436 kts 285°
2026-05-04 04:21 64.26381 -32.02049 36086 ft 436 kts 285°
2026-05-04 04:21 64.28016 -32.15468 36092 ft 436 kts 285°
2026-05-04 04:22 64.29641 -32.28917 36089 ft 435 kts 285°
2026-05-04 04:22 64.31251 -32.42361 36088 ft 436 kts 285°
2026-05-04 04:23 64.32849 -32.55826 36100 ft 436 kts 285°
2026-05-04 04:23 64.34435 -32.69307 36099 ft 436 kts 285°
2026-05-04 04:24 64.36009 -32.82804 36082 ft 436 kts 285°
2026-05-04 04:24 64.37574 -32.96355 36094 ft 437 kts 284°
2026-05-04 04:25 64.39133 -33.09967 36102 ft 438 kts 284°
2026-05-04 04:25 64.40675 -33.23566 36106 ft 438 kts 284°
2026-05-04 04:26 64.42207 -33.37197 36111 ft 437 kts 284°
2026-05-04 04:26 64.43723 -33.50820 36116 ft 437 kts 284°
2026-05-04 04:27 64.45225 -33.64438 36116 ft 436 kts 284°
2026-05-04 04:27 64.46705 -33.77986 36119 ft 436 kts 284°
2026-05-04 04:28 64.48181 -33.91635 36118 ft 436 kts 284°
2026-05-04 04:28 64.49646 -34.05301 36120 ft 437 kts 283°
2026-05-04 04:29 64.51103 -34.19030 36128 ft 439 kts 283°
2026-05-04 04:29 64.52549 -34.32797 36127 ft 439 kts 283°
2026-05-04 04:30 64.53981 -34.46560 36129 ft 438 kts 283°
2026-05-04 04:30 64.55399 -34.60333 36132 ft 438 kts 283°
2026-05-04 04:31 64.56807 -34.74150 36131 ft 438 kts 283°
2026-05-04 04:31 64.58200 -34.87951 36129 ft 438 kts 283°
2026-05-04 04:32 64.59580 -35.01777 36140 ft 438 kts 283°
2026-05-04 04:32 64.60948 -35.15620 36140 ft 438 kts 282°
2026-05-04 04:33 64.62302 -35.29464 36138 ft 438 kts 282°
2026-05-04 04:33 64.63646 -35.43349 36152 ft 438 kts 282°
2026-05-04 04:34 64.64971 -35.57195 36154 ft 437 kts 282°
2026-05-04 04:34 64.66282 -35.71042 36154 ft 437 kts 282°
2026-05-04 04:35 64.67581 -35.84907 36154 ft 437 kts 282°
2026-05-04 04:35 64.68867 -35.98793 36157 ft 437 kts 282°
2026-05-04 04:36 64.70140 -36.12686 36145 ft 437 kts 282°
2026-05-04 04:36 64.71402 -36.26611 36147 ft 437 kts 281°
2026-05-04 04:37 64.73878 -36.54411 36159 ft 439 kts 281°
2026-05-04 04:38 64.75102 -36.68397 36162 ft 439 kts 281°
2026-05-04 04:38 64.76315 -36.82416 36162 ft 439 kts 281°
2026-05-04 04:39 64.77515 -36.96444 36164 ft 439 kts 281°
2026-05-04 04:39 64.78700 -37.10475 36164 ft 439 kts 281°
2026-05-04 04:40 64.79874 -37.24538 36166 ft 439 kts 281°
2026-05-04 04:40 64.81032 -37.38584 36171 ft 439 kts 281°
2026-05-04 04:41 64.82178 -37.52660 36179 ft 438 kts 280°
2026-05-04 04:41 64.83309 -37.66722 36169 ft 439 kts 280°
2026-05-04 04:42 64.84430 -37.80842 36167 ft 440 kts 280°
2026-05-04 04:42 64.85540 -37.94998 36173 ft 440 kts 280°
2026-05-04 04:43 64.86635 -38.09149 36173 ft 440 kts 280°
2026-05-04 04:43 64.87717 -38.23321 36174 ft 440 kts 279°
2026-05-04 04:44 64.88784 -38.37488 36173 ft 440 kts 279°
2026-05-04 04:44 64.89840 -38.51686 36194 ft 440 kts 279°
2026-05-04 04:45 64.90880 -38.65871 36178 ft 439 kts 279°
2026-05-04 04:47 64.94421 -39.15704 36180 ft 442 kts 278°
2026-05-04 04:47 64.95405 -39.30011 36178 ft 442 kts 278°
2026-05-04 04:48 64.96376 -39.44340 36179 ft 442 kts 278°
2026-05-04 04:49 64.98743 -39.80205 36178 ft 443 kts 278°
2026-05-04 04:49 64.99669 -39.94615 36178 ft 443 kts 278°
2026-05-04 04:50 65.00488 -40.09037 36171 ft 443 kts 275°
2026-05-04 04:50 65.00911 -40.23517 36181 ft 446 kts 273°
2026-05-04 04:51 65.01279 -40.38267 36181 ft 447 kts 273°
2026-05-04 04:51 65.01687 -40.52933 36181 ft 447 kts 274°
2026-05-04 04:52 65.02114 -40.67584 36236 ft 447 kts 274°
2026-05-04 04:52 65.02532 -40.82169 36177 ft 441 kts 274°
2026-05-04 04:53 65.02932 -40.96636 36178 ft 440 kts 274°
2026-05-04 04:53 65.03316 -41.11082 36183 ft 440 kts 274°
2026-05-04 04:54 65.03684 -41.25445 36152 ft 440 kts 274°
2026-05-04 04:54 65.04041 -41.40004 36137 ft 440 kts 274°
2026-05-04 04:55 65.04382 -41.54475 36139 ft 440 kts 274°
2026-05-04 04:55 65.04709 -41.68955 36100 ft 440 kts 274°
2026-05-04 04:56 65.05023 -41.83438 36104 ft 440 kts 273°
2026-05-04 04:56 65.05322 -41.97889 36097 ft 438 kts 273°
2026-05-04 04:57 65.05605 -42.12270 36093 ft 437 kts 273°
2026-05-04 04:57 65.05875 -42.26668 36079 ft 437 kts 273°
2026-05-04 04:58 65.06129 -42.40968 36073 ft 438 kts 272°
2026-05-04 04:58 65.06374 -42.55529 36080 ft 441 kts 272°
2026-05-04 04:59 65.06604 -42.70048 36075 ft 441 kts 272°
2026-05-04 04:59 65.06820 -42.84579 36072 ft 441 kts 272°
2026-05-04 05:00 65.07021 -42.99094 36075 ft 441 kts 272°
2026-05-04 05:01 65.07296 -43.20790 36071 ft 441 kts 272°
2026-05-04 05:01 65.07437 -43.32968 36072 ft 441 kts 271°
2026-05-04 05:02 65.07616 -43.49850 36075 ft 441 kts 271°
2026-05-04 05:02 65.07755 -43.64421 36073 ft 445 kts 271°
2026-05-04 05:03 65.07862 -43.76755 36072 ft 447 kts 271°
2026-05-04 05:04 65.08075 -44.06245 36070 ft 447 kts 271°
2026-05-04 05:04 65.08160 -44.21000 36073 ft 448 kts 270°
2026-05-04 05:06 65.08355 -44.80239 36081 ft 452 kts 270°
2026-05-04 05:07 65.08367 -44.95149 36086 ft 453 kts 270°
2026-05-04 05:07 65.08365 -45.10075 36092 ft 453 kts 269°
2026-05-04 05:09 65.08169 -45.77235 36097 ft 453 kts 269°
2026-05-04 05:10 65.08085 -45.92170 36092 ft 453 kts 269°
2026-05-04 05:10 65.07985 -46.07154 36105 ft 455 kts 268°
2026-05-04 05:11 65.07870 -46.22152 36102 ft 455 kts 268°
2026-05-04 05:11 65.07740 -46.37161 36102 ft 455 kts 268°
2026-05-04 05:12 65.07596 -46.52151 36110 ft 455 kts 268°
2026-05-04 05:12 65.07436 -46.67143 36102 ft 455 kts 268°
2026-05-04 05:13 65.07261 -46.82134 36108 ft 455 kts 268°
2026-05-04 05:13 65.07071 -46.97127 36111 ft 455 kts 268°
2026-05-04 05:14 65.06867 -47.12099 36113 ft 455 kts 268°
2026-05-04 05:14 65.06647 -47.27093 36116 ft 455 kts 267°
2026-05-04 05:15 65.06412 -47.42070 36119 ft 455 kts 267°
2026-05-04 05:15 65.06163 -47.57041 36119 ft 455 kts 267°
2026-05-04 05:16 65.05898 -47.72003 36128 ft 455 kts 267°
2026-05-04 05:16 65.05619 -47.86960 36120 ft 454 kts 267°
2026-05-04 05:17 65.05325 -48.01915 36127 ft 454 kts 267°
2026-05-04 05:17 65.05016 -48.16881 36127 ft 454 kts 266°
2026-05-04 05:18 65.04692 -48.31841 36133 ft 457 kts 266°
2026-05-04 05:18 65.04350 -48.46887 36134 ft 457 kts 266°
2026-05-04 05:19 65.03994 -48.61918 36135 ft 457 kts 266°
2026-05-04 05:19 65.03623 -48.76962 36135 ft 457 kts 266°
2026-05-04 05:20 65.03236 -48.91974 36141 ft 457 kts 266°
2026-05-04 05:20 65.02834 -49.07009 36138 ft 457 kts 266°
2026-05-04 05:21 65.02418 -49.22022 36145 ft 457 kts 265°
2026-05-04 05:21 65.01989 -49.36938 36137 ft 458 kts 265°
2026-05-04 05:22 65.01538 -49.52108 36149 ft 460 kts 265°
2026-05-04 05:22 65.01076 -49.67126 36151 ft 461 kts 265°
2026-05-04 05:23 65.00596 -49.82221 36151 ft 461 kts 265°
2026-05-04 05:23 65.00100 -49.97337 36164 ft 461 kts 265°
2026-05-04 05:24 64.99475 -50.12404 36151 ft 461 kts 262°
2026-05-04 05:24 64.98606 -50.27399 36154 ft 461 kts 262°
2026-05-04 05:25 64.97717 -50.42385 36156 ft 461 kts 262°
2026-05-04 05:25 64.96849 -50.57410 36148 ft 463 kts 262°
2026-05-04 05:26 64.95982 -50.72484 36154 ft 464 kts 261°
2026-05-04 05:26 64.95103 -50.87547 36153 ft 464 kts 261°
2026-05-04 05:28 64.91420 -51.47769 36142 ft 464 kts 261°
2026-05-04 05:29 64.90462 -51.62798 36146 ft 465 kts 260°
2026-05-04 05:29 64.89483 -51.77888 36137 ft 467 kts 260°
2026-05-04 05:31 64.85408 -52.38237 36141 ft 467 kts 260°
2026-05-04 05:32 64.84351 -52.53304 36129 ft 467 kts 259°
2026-05-04 05:33 64.82735 -52.75906 36133 ft 470 kts 259°
2026-05-04 05:33 64.81632 -52.91049 36132 ft 471 kts 259°
2026-05-04 05:34 64.80513 -53.06172 36127 ft 471 kts 259°
2026-05-04 05:34 64.79379 -53.21296 36130 ft 471 kts 259°
2026-05-04 05:35 64.78228 -53.36426 36133 ft 471 kts 258°
2026-05-04 05:35 64.77063 -53.51516 36127 ft 471 kts 258°
2026-05-04 05:36 64.75890 -53.66509 36130 ft 471 kts 258°
2026-05-04 05:36 64.74685 -53.81701 36131 ft 473 kts 258°
2026-05-04 05:37 64.73464 -53.96881 36126 ft 474 kts 258°
2026-05-04 05:37 64.72228 -54.12038 36129 ft 475 kts 258°
2026-05-04 05:38 64.70344 -54.34771 36124 ft 474 kts 257°
2026-05-04 05:38 64.69070 -54.49892 36130 ft 474 kts 257°
2026-05-04 05:39 64.67137 -54.72457 36132 ft 474 kts 257°
2026-05-04 05:40 64.65160 -54.95111 36126 ft 475 kts 257°
2026-05-04 05:40 64.63821 -55.10204 36132 ft 475 kts 256°
2026-05-04 05:41 64.62467 -55.25293 36127 ft 475 kts 256°
2026-05-04 05:41 64.61098 -55.40349 36127 ft 475 kts 256°
2026-05-04 05:42 64.59714 -55.55395 36129 ft 475 kts 256°
2026-05-04 05:42 64.58313 -55.70444 36124 ft 475 kts 256°
2026-05-04 05:43 64.56899 -55.85455 36124 ft 475 kts 256°
2026-05-04 05:45 64.51079 -56.45394 36126 ft 476 kts 255°
2026-05-04 05:47 64.45287 -57.02556 36133 ft 477 kts 254°
2026-05-04 05:47 64.43730 -57.17515 36132 ft 477 kts 253°
2026-05-04 05:48 64.42152 -57.32425 36138 ft 477 kts 253°
2026-05-04 05:48 64.40569 -57.47357 36141 ft 477 kts 253°
2026-05-04 05:49 64.38973 -57.62238 36138 ft 478 kts 253°
2026-05-04 05:49 64.37356 -57.77109 36137 ft 478 kts 253°
2026-05-04 05:51 64.30737 -58.36454 36135 ft 479 kts 253°
2026-05-04 05:52 64.29042 -58.51271 36137 ft 478 kts 253°
2026-05-04 05:52 64.27328 -58.66051 36133 ft 478 kts 252°
2026-05-04 05:54 64.22114 -59.26229 36129 ft 485 kts 262°
2026-05-04 05:55 64.21420 -59.41666 36133 ft 486 kts 260°
2026-05-04 05:55 64.20705 -59.57016 36120 ft 487 kts 261°
2026-05-04 05:56 64.19955 -59.72561 36121 ft 487 kts 261°
2026-05-04 05:56 64.19188 -59.87900 36116 ft 487 kts 259°
2026-05-04 05:57 64.18400 -60.03296 36130 ft 487 kts 259°
2026-05-04 05:57 64.17596 -60.18709 36130 ft 486 kts 260°
2026-05-04 05:58 64.16776 -60.34153 36136 ft 490 kts 259°
2026-05-04 05:58 64.15931 -60.49671 36119 ft 492 kts 259°
2026-05-04 05:59 64.15074 -60.65216 36130 ft 492 kts 260°
2026-05-04 05:59 64.14202 -60.80751 36132 ft 491 kts 259°
2026-05-04 06:00 64.13312 -60.96285 36138 ft 491 kts 259°
2026-05-04 06:00 64.12401 -61.11767 36124 ft 491 kts 259°
2026-05-04 06:01 64.11472 -61.27270 36140 ft 491 kts 259°
2026-05-04 06:03 64.07592 -61.89530 36134 ft 497 kts 258°
2026-05-04 06:05 64.02879 -62.59729 36111 ft 498 kts 258°
2026-05-04 06:06 64.01778 -62.75331 36123 ft 497 kts 257°
2026-05-04 06:06 64.00666 -62.90912 36123 ft 499 kts 256°
2026-05-04 06:07 63.99901 -63.06608 36123 ft 504 kts 262°
2026-05-04 06:07 63.99514 -63.22557 36135 ft 505 kts 264°
2026-05-04 06:08 63.99194 -63.38539 36146 ft 504 kts 263°
2026-05-04 06:08 63.98846 -63.54514 36149 ft 505 kts 264°
2026-05-04 06:09 63.98471 -63.70461 36153 ft 505 kts 262°
2026-05-04 06:11 63.96779 -64.34171 36235 ft 503 kts 263°
2026-05-04 06:13 63.94806 -64.98019 36248 ft 506 kts 263°
2026-05-04 06:14 63.92846 -65.53824 36206 ft 506 kts 262°
2026-05-04 06:15 63.92247 -65.69755 36204 ft 506 kts 262°
2026-05-04 06:15 63.91630 -65.85658 36227 ft 506 kts 262°
2026-05-04 06:16 63.90994 -66.01652 36176 ft 510 kts 262°
2026-05-04 06:16 63.90337 -66.17700 36142 ft 512 kts 261°
2026-05-04 06:17 63.89656 -66.33784 36126 ft 511 kts 260°
2026-05-04 06:17 63.88959 -66.49832 36129 ft 511 kts 261°
2026-05-04 06:18 63.88253 -66.65864 36125 ft 511 kts 260°
2026-05-04 06:20 63.84636 -67.29482 36098 ft 506 kts 256°
2026-05-04 06:21 63.81577 -67.68907 36066 ft 512 kts 256°
2026-05-04 06:22 63.80360 -67.84768 36056 ft 510 kts 257°
2026-05-04 06:25 63.71390 -68.94882 36026 ft 512 kts 256°
2026-05-04 06:26 63.70031 -69.10638 36019 ft 512 kts 256°
2026-05-04 06:26 63.68654 -69.26405 36021 ft 512 kts 256°
2026-05-04 06:27 63.65137 -69.65717 35979 ft 513 kts 255°
2026-05-04 06:28 63.63696 -69.81459 35975 ft 513 kts 255°
2026-05-04 06:28 63.62238 -69.97175 35971 ft 513 kts 255°
2026-05-04 06:29 63.60765 -70.12867 35969 ft 513 kts 255°
2026-05-04 06:29 63.59271 -70.28568 35950 ft 514 kts 255°
2026-05-04 06:30 63.58016 -70.41615 35959 ft 515 kts 255°
2026-05-04 06:30 63.56487 -70.57339 35951 ft 515 kts 255°
2026-05-04 06:31 63.54942 -70.73033 35944 ft 515 kts 254°
2026-05-04 06:31 63.53380 -70.88707 35943 ft 515 kts 254°
2026-05-04 06:33 63.46960 -71.51201 35932 ft 515 kts 254°
2026-05-04 06:34 63.45313 -71.66787 35932 ft 515 kts 254°
2026-05-04 06:34 63.43651 -71.82340 35923 ft 515 kts 253°
2026-05-04 06:36 63.36825 -72.44413 35908 ft 516 kts 253°
2026-05-04 06:37 63.35074 -72.59916 35908 ft 516 kts 253°
2026-05-04 06:37 63.33304 -72.75416 35908 ft 516 kts 253°
2026-05-04 06:38 63.31530 -72.90782 35903 ft 516 kts 252°
2026-05-04 06:40 63.24196 -73.52666 35884 ft 519 kts 252°
2026-05-04 06:40 63.22318 -73.68111 35885 ft 519 kts 252°
2026-05-04 06:41 63.20424 -73.83530 35880 ft 518 kts 252°
2026-05-04 06:41 63.18513 -73.98929 35876 ft 518 kts 252°
2026-05-04 06:42 63.16586 -74.14303 35873 ft 518 kts 252°
2026-05-04 06:44 63.08719 -74.75543 35867 ft 517 kts 251°
2026-05-04 06:44 63.06710 -74.90802 35864 ft 518 kts 251°
2026-05-04 06:45 63.04684 -75.06053 35858 ft 519 kts 251°
2026-05-04 06:45 63.02641 -75.21287 35844 ft 519 kts 251°
2026-05-04 06:46 63.00581 -75.36505 35843 ft 518 kts 251°
2026-05-04 06:46 62.98504 -75.51707 35845 ft 518 kts 251°
2026-05-04 06:48 62.90026 -76.12341 35820 ft 520 kts 250°
2026-05-04 06:50 62.81278 -76.72689 35809 ft 521 kts 250°
2026-05-04 06:51 62.79046 -76.87756 35801 ft 520 kts 250°
2026-05-04 06:51 62.76802 -77.02774 35802 ft 520 kts 249°
2026-05-04 06:52 62.74540 -77.17775 35796 ft 520 kts 249°
2026-05-04 06:52 62.72262 -77.32756 35798 ft 520 kts 249°
2026-05-04 06:53 62.69969 -77.47710 35799 ft 521 kts 249°
2026-05-04 06:53 62.67657 -77.62660 35793 ft 521 kts 249°
2026-05-04 06:54 62.65326 -77.77606 35793 ft 521 kts 249°
2026-05-04 06:54 62.62983 -77.92501 35787 ft 521 kts 249°
2026-05-04 06:55 62.60622 -78.07388 35793 ft 521 kts 249°
2026-05-04 06:55 62.58249 -78.22233 35788 ft 521 kts 249°
2026-05-04 06:57 62.48596 -78.81384 35781 ft 521 kts 248°
2026-05-04 06:58 62.46144 -78.96112 35779 ft 521 kts 248°
2026-05-04 06:58 62.43677 -79.10811 35775 ft 521 kts 248°
2026-05-04 06:59 62.41208 -79.25405 35802 ft 521 kts 248°
2026-05-04 06:59 62.38694 -79.40156 35773 ft 520 kts 248°
2026-05-04 07:01 62.28571 -79.98390 35771 ft 520 kts 247°
2026-05-04 07:02 62.26127 -80.13040 35765 ft 521 kts 250°
2026-05-04 07:02 62.23881 -80.27814 35769 ft 521 kts 250°
2026-05-04 07:03 62.21611 -80.42595 35763 ft 521 kts 249°
2026-05-04 07:03 62.19294 -80.57287 35770 ft 521 kts 249°
2026-05-04 07:04 62.16941 -80.71967 35758 ft 521 kts 249°
2026-05-04 07:04 62.14573 -80.86603 35756 ft 521 kts 249°
2026-05-04 07:05 62.12194 -81.01201 35758 ft 521 kts 249°
2026-05-04 07:05 62.09797 -81.15805 35749 ft 521 kts 249°
2026-05-04 07:06 62.06192 -81.37545 35748 ft 521 kts 249°
2026-05-04 07:07 62.03758 -81.52080 35746 ft 521 kts 248°
2026-05-04 07:09 61.93870 -82.09986 35731 ft 520 kts 248°
2026-05-04 07:09 61.91363 -82.24390 35733 ft 520 kts 248°
2026-05-04 07:10 61.88841 -82.38765 35731 ft 520 kts 248°
2026-05-04 07:12 61.78602 -82.96049 35717 ft 520 kts 247°
2026-05-04 07:12 61.76002 -83.10325 35719 ft 520 kts 247°
2026-05-04 07:13 61.73393 -83.24548 35712 ft 520 kts 247°
2026-05-04 07:13 61.70766 -83.38761 35700 ft 520 kts 247°
2026-05-04 07:14 61.64587 -83.71797 35708 ft 520 kts 247°
2026-05-04 07:15 61.61912 -83.85926 35710 ft 520 kts 246°
2026-05-04 07:15 61.59221 -84.00041 35702 ft 520 kts 246°
2026-05-04 07:16 61.56518 -84.14121 35693 ft 520 kts 246°
2026-05-04 07:16 61.53798 -84.28185 35698 ft 520 kts 246°
2026-05-04 07:17 61.51064 -84.42219 35687 ft 520 kts 246°
2026-05-04 07:17 61.48311 -84.56254 35699 ft 521 kts 246°
2026-05-04 07:18 61.45547 -84.70250 35689 ft 521 kts 246°
2026-05-04 07:18 61.42765 -84.84238 35682 ft 521 kts 246°
2026-05-04 07:19 61.39976 -84.98167 35682 ft 521 kts 246°
2026-05-04 07:19 61.37165 -85.12103 35680 ft 521 kts 246°
2026-05-04 07:20 61.34340 -85.26017 35669 ft 522 kts 245°
2026-05-04 07:20 61.31514 -85.39841 35677 ft 522 kts 245°
2026-05-04 07:22 61.20016 -85.95147 35667 ft 521 kts 245°
2026-05-04 07:23 61.17109 -86.08900 35667 ft 521 kts 245°
2026-05-04 07:23 61.14190 -86.22613 35656 ft 521 kts 245°
2026-05-04 07:24 61.11254 -86.36318 35656 ft 521 kts 245°
2026-05-04 07:24 61.08307 -86.49988 35652 ft 521 kts 244°
2026-05-04 07:26 60.96393 -87.04343 35642 ft 519 kts 244°
2026-05-04 07:27 60.93389 -87.17832 35633 ft 519 kts 244°
2026-05-04 07:27 60.90368 -87.31310 35633 ft 519 kts 244°
2026-05-04 07:28 60.87337 -87.44746 35633 ft 518 kts 244°
2026-05-04 07:28 60.84296 -87.58148 35628 ft 518 kts 244°
2026-05-04 07:29 60.81242 -87.71517 35625 ft 518 kts 244°
2026-05-04 07:29 60.78175 -87.84859 35625 ft 518 kts 244°
2026-05-04 07:30 60.75091 -87.98194 35625 ft 518 kts 244°
2026-05-04 07:30 60.71997 -88.11487 35621 ft 517 kts 244°
2026-05-04 07:31 60.68899 -88.24720 35617 ft 516 kts 243°
2026-05-04 07:33 60.56384 -88.77358 35612 ft 516 kts 243°
2026-05-04 07:33 60.53223 -88.90455 35611 ft 516 kts 243°
2026-05-04 07:34 60.50055 -89.03501 35606 ft 516 kts 243°
2026-05-04 07:34 60.46868 -89.16550 35606 ft 516 kts 243°
2026-05-04 07:35 60.43674 -89.29547 35606 ft 515 kts 243°
2026-05-04 07:35 60.40471 -89.42505 35606 ft 515 kts 243°
2026-05-04 07:36 60.37252 -89.55451 35598 ft 515 kts 243°
2026-05-04 07:38 60.24270 -90.06905 35597 ft 514 kts 242°
2026-05-04 07:38 60.20993 -90.19707 35598 ft 514 kts 242°
2026-05-04 07:39 60.17706 -90.32473 35595 ft 514 kts 242°
2026-05-04 07:39 60.14411 -90.45199 35593 ft 514 kts 242°
2026-05-04 07:40 60.11122 -90.57829 35594 ft 513 kts 242°
2026-05-04 07:40 60.07804 -90.70497 35589 ft 513 kts 242°
2026-05-04 07:41 60.04451 -90.83232 35594 ft 514 kts 242°
2026-05-04 07:41 60.01128 -90.95776 35590 ft 514 kts 242°
2026-05-04 07:42 59.97653 -91.08221 35592 ft 513 kts 237°
2026-05-04 07:42 59.93704 -91.20221 35591 ft 513 kts 235°
2026-05-04 07:43 59.89756 -91.31969 35589 ft 513 kts 236°
2026-05-04 07:43 59.85837 -91.43847 35594 ft 513 kts 236°
2026-05-04 07:44 59.81951 -91.55723 35587 ft 513 kts 236°
2026-05-04 07:44 59.78054 -91.67608 35596 ft 513 kts 236°
2026-05-04 07:45 59.74151 -91.79442 35593 ft 513 kts 236°
2026-05-04 07:45 59.70233 -91.91251 35596 ft 513 kts 236°
2026-05-04 07:46 59.66306 -92.03025 35596 ft 513 kts 236°
2026-05-04 07:46 59.62365 -92.14783 35598 ft 514 kts 236°
2026-05-04 07:47 59.58406 -92.26536 35602 ft 514 kts 236°
2026-05-04 07:49 59.42512 -92.73133 35609 ft 515 kts 235°
2026-05-04 07:49 59.38491 -92.84777 35628 ft 515 kts 235°
2026-05-04 07:50 59.34460 -92.96389 35621 ft 515 kts 235°
2026-05-04 07:50 59.30420 -93.07974 35618 ft 515 kts 235°
2026-05-04 07:51 59.26364 -93.19548 35635 ft 515 kts 235°
2026-05-04 07:51 59.22307 -93.31066 35627 ft 516 kts 235°
2026-05-04 07:52 59.18225 -93.42600 35634 ft 517 kts 235°
2026-05-04 07:52 59.14124 -93.54127 35633 ft 516 kts 235°
2026-05-04 07:54 58.97660 -93.99860 35663 ft 517 kts 234°
2026-05-04 07:55 58.93520 -94.11224 35666 ft 516 kts 234°
2026-05-04 07:55 58.89376 -94.22541 35667 ft 515 kts 234°
2026-05-04 07:56 58.85229 -94.33811 35670 ft 514 kts 234°
2026-05-04 07:56 58.81078 -94.45042 35671 ft 514 kts 234°
2026-05-04 07:57 58.76944 -94.56172 35683 ft 513 kts 234°
2026-05-04 07:57 58.72779 -94.67334 35688 ft 514 kts 234°
2026-05-04 07:58 58.68597 -94.78489 35705 ft 514 kts 234°
2026-05-04 07:58 58.64411 -94.89602 35705 ft 514 kts 233°
2026-05-04 07:59 58.60215 -95.00691 35703 ft 513 kts 233°
2026-05-04 07:59 58.56007 -95.11756 35710 ft 513 kts 234°
2026-05-04 08:00 58.51799 -95.22775 35715 ft 513 kts 233°
2026-05-04 08:02 58.35349 -95.64556 37598 ft 512 kts 232°
2026-05-04 08:02 58.33252 -95.69934 37833 ft 512 kts 232°
2026-05-04 08:02 58.31134 -95.75364 38040 ft 512 kts 232°
2026-05-04 08:03 58.28981 -95.80866 38254 ft 512 kts 232°
2026-05-04 08:03 58.26880 -95.86225 38461 ft 512 kts 232°
2026-05-04 08:03 58.24750 -95.91644 38605 ft 512 kts 232°
2026-05-04 08:03 58.22614 -95.97061 38736 ft 513 kts 232°
2026-05-04 08:04 58.20472 -96.02477 38878 ft 513 kts 232°
2026-05-04 08:04 58.18333 -96.07877 39034 ft 513 kts 231°
2026-05-04 08:04 58.16160 -96.13347 39173 ft 513 kts 231°
2026-05-04 08:04 58.14044 -96.18659 39308 ft 513 kts 232°
2026-05-04 08:05 58.11894 -96.24047 39444 ft 513 kts 232°
2026-05-04 08:05 58.09738 -96.29437 39576 ft 513 kts 231°
2026-05-04 08:05 58.07585 -96.34810 39688 ft 513 kts 231°
2026-05-04 08:05 58.05428 -96.40177 39748 ft 514 kts 231°
2026-05-04 08:06 58.01106 -96.50898 39755 ft 513 kts 232°
2026-05-04 08:06 57.96774 -96.61597 39755 ft 513 kts 231°
2026-05-04 08:08 57.79375 -97.04081 39762 ft 512 kts 231°
2026-05-04 08:11 57.59646 -97.51355 39783 ft 512 kts 231°
2026-05-04 08:11 57.53044 -97.66967 39776 ft 512 kts 231°
2026-05-04 08:12 57.48626 -97.77356 39784 ft 512 kts 231°
2026-05-04 08:12 57.44203 -97.87714 39780 ft 512 kts 231°
2026-05-04 08:13 57.39766 -97.98059 39798 ft 512 kts 231°
2026-05-04 08:13 57.35323 -98.08374 39790 ft 512 kts 231°
2026-05-04 08:14 57.30877 -98.18652 39795 ft 512 kts 230°
2026-05-04 08:16 57.12988 -98.59559 39809 ft 512 kts 230°
2026-05-04 08:16 57.08490 -98.69736 39802 ft 512 kts 230°
2026-05-04 08:17 57.03988 -98.79880 39801 ft 512 kts 230°
2026-05-04 08:17 56.99476 -98.90001 39803 ft 512 kts 230°
2026-05-04 08:19 56.81367 -99.30202 39804 ft 512 kts 230°
2026-05-04 08:20 56.76821 -99.40190 39802 ft 512 kts 230°
2026-05-04 08:20 56.72271 -99.50142 39807 ft 511 kts 230°
2026-05-04 08:21 56.67714 -99.60069 39810 ft 511 kts 230°
2026-05-04 08:21 56.63149 -99.69974 39809 ft 511 kts 230°
2026-05-04 08:22 56.58576 -99.79854 39812 ft 511 kts 230°
2026-05-04 08:24 56.40247 -100.19050 39815 ft 511 kts 229°
2026-05-04 08:24 56.35614 -100.28856 39815 ft 510 kts 229°
2026-05-04 08:25 56.30997 -100.38589 39813 ft 510 kts 229°
2026-05-04 08:25 56.26376 -100.48291 39818 ft 510 kts 229°
2026-05-04 08:27 56.07863 -100.86766 39834 ft 510 kts 229°
2026-05-04 08:28 56.03212 -100.96336 39832 ft 509 kts 229°
2026-05-04 08:28 55.98556 -101.05880 39831 ft 509 kts 229°
2026-05-04 08:29 55.93892 -101.15399 39831 ft 509 kts 229°
2026-05-04 08:31 55.75159 -101.53261 39831 ft 510 kts 229°
2026-05-04 08:33 55.56333 -101.90718 39851 ft 509 kts 229°
2026-05-04 08:35 55.37387 -102.27827 39832 ft 509 kts 229°
2026-05-04 08:35 55.32638 -102.37039 39850 ft 509 kts 229°
2026-05-04 08:37 55.15939 -102.69152 39854 ft 509 kts 229°
2026-05-04 08:38 55.11149 -102.78285 39849 ft 509 kts 229°
2026-05-04 08:38 55.06356 -102.87387 39849 ft 509 kts 229°
2026-05-04 08:40 54.89059 -103.26010 39852 ft 505 kts 237°
2026-05-04 08:41 54.84986 -103.35942 39860 ft 505 kts 237°
2026-05-04 08:41 54.80903 -103.45827 39855 ft 505 kts 236°
2026-05-04 08:42 54.76800 -103.55707 39858 ft 505 kts 236°
2026-05-04 08:42 54.73384 -103.63902 39833 ft 504 kts 237°
2026-05-04 08:43 54.69272 -103.73729 39868 ft 504 kts 237°
2026-05-04 08:43 54.65156 -103.83531 39861 ft 504 kts 236°
2026-05-04 08:44 54.61030 -103.93321 39874 ft 504 kts 236°
2026-05-04 08:46 54.44441 -104.32287 39883 ft 505 kts 236°
2026-05-04 08:46 54.40273 -104.41982 39896 ft 505 kts 236°
2026-05-04 08:47 54.36093 -104.51665 39901 ft 505 kts 236°
2026-05-04 08:47 54.31901 -104.61340 39891 ft 505 kts 236°
2026-05-04 08:48 54.27706 -104.70985 39903 ft 505 kts 236°
2026-05-04 08:48 54.23499 -104.80621 39906 ft 506 kts 236°
2026-05-04 08:49 54.19282 -104.90241 39909 ft 506 kts 236°
2026-05-04 08:50 54.04482 -105.23715 39931 ft 505 kts 236°
2026-05-04 08:51 54.00246 -105.33213 39943 ft 504 kts 236°
2026-05-04 08:51 53.96001 -105.42696 39936 ft 504 kts 235°
2026-05-04 08:52 53.91755 -105.52146 39944 ft 504 kts 235°
2026-05-04 08:52 53.87497 -105.61587 39944 ft 504 kts 235°
2026-05-04 08:54 53.70382 -105.99173 39946 ft 504 kts 235°
2026-05-04 08:55 53.66079 -106.08537 39948 ft 504 kts 235°
2026-05-04 08:55 53.61779 -106.17857 39952 ft 504 kts 235°
2026-05-04 09:01 53.16289 -107.14396 39965 ft 501 kts 234°
2026-05-04 09:01 53.11931 -107.23452 39973 ft 500 kts 234°
2026-05-04 09:02 53.07574 -107.32475 39967 ft 501 kts 234°
2026-05-04 09:02 53.03202 -107.41494 39967 ft 501 kts 234°
2026-05-04 09:03 52.98831 -107.50482 39945 ft 501 kts 234°
2026-05-04 09:03 52.94447 -107.59463 39976 ft 500 kts 234°
2026-05-04 09:04 52.90062 -107.68414 39979 ft 500 kts 234°
2026-05-04 09:04 52.85677 -107.77332 39979 ft 500 kts 234°
2026-05-04 09:05 52.81279 -107.86248 39973 ft 500 kts 234°
2026-05-04 09:05 52.76879 -107.95135 39966 ft 500 kts 234°
2026-05-04 09:06 52.72474 -108.03998 39993 ft 500 kts 234°
2026-05-04 09:08 52.54777 -108.39303 39996 ft 499 kts 234°
2026-05-04 09:08 52.50347 -108.48062 40004 ft 498 kts 234°
2026-05-04 09:09 52.45912 -108.56804 40003 ft 498 kts 233°
2026-05-04 09:09 52.41476 -108.65517 40002 ft 498 kts 233°
2026-05-04 09:10 52.37025 -108.74228 40004 ft 498 kts 234°
2026-05-04 09:10 52.32601 -108.82856 40004 ft 498 kts 233°
2026-05-04 09:11 52.28143 -108.91522 40006 ft 498 kts 233°
2026-05-04 09:11 52.23681 -109.00166 40004 ft 498 kts 233°
2026-05-04 09:12 52.19210 -109.08796 39985 ft 498 kts 233°
2026-05-04 09:14 52.01305 -109.43070 40006 ft 497 kts 233°
2026-05-04 09:14 51.96782 -109.51655 40009 ft 497 kts 233°
2026-05-04 09:15 51.92285 -109.60160 40013 ft 497 kts 233°
2026-05-04 09:15 51.87809 -109.68599 40011 ft 497 kts 233°
2026-05-04 09:17 51.67491 -110.06551 40016 ft 496 kts 233°
2026-05-04 09:18 51.62963 -110.14932 40023 ft 496 kts 233°
2026-05-04 09:18 51.58428 -110.23299 40008 ft 496 kts 233°
2026-05-04 09:19 51.53896 -110.31629 40032 ft 495 kts 233°
2026-05-04 09:19 51.49368 -110.39929 40036 ft 495 kts 233°
2026-05-04 09:20 51.44825 -110.48229 40040 ft 495 kts 233°
2026-05-04 09:20 51.40282 -110.56499 40023 ft 493 kts 233°
2026-05-04 09:21 51.35742 -110.64737 40051 ft 493 kts 233°
2026-05-04 09:21 51.31208 -110.72941 40059 ft 493 kts 233°
2026-05-04 09:22 51.26660 -110.81142 40058 ft 493 kts 233°
2026-05-04 09:22 51.22109 -110.89323 40067 ft 493 kts 233°
2026-05-04 09:23 51.17549 -110.97492 40070 ft 494 kts 233°
2026-05-04 09:23 51.12971 -111.05667 40069 ft 495 kts 233°
2026-05-04 09:25 50.95355 -111.36877 40071 ft 496 kts 233°
2026-05-04 09:26 50.90728 -111.45014 40072 ft 497 kts 232°
2026-05-04 09:26 50.86093 -111.53137 40074 ft 497 kts 232°
2026-05-04 09:27 50.81451 -111.61245 40043 ft 497 kts 232°
2026-05-04 09:27 50.76792 -111.69358 40066 ft 499 kts 232°
2026-05-04 09:28 50.72116 -111.77476 40066 ft 500 kts 232°
2026-05-04 09:28 50.67429 -111.85585 40059 ft 500 kts 232°
2026-05-04 09:29 50.62750 -111.93651 40061 ft 498 kts 232°
2026-05-04 09:29 50.58057 -112.01720 40063 ft 500 kts 232°
2026-05-04 09:30 50.53348 -112.09793 40069 ft 502 kts 232°
2026-05-04 09:30 50.48621 -112.17869 40068 ft 502 kts 232°
2026-05-04 09:31 50.43891 -112.25921 40069 ft 502 kts 232°
2026-05-04 09:31 50.39149 -112.33968 40067 ft 503 kts 232°
2026-05-04 09:32 50.34394 -112.42017 40076 ft 504 kts 232°
2026-05-04 09:34 50.15272 -112.74118 40093 ft 505 kts 232°
2026-05-04 09:34 50.10472 -112.82111 40098 ft 505 kts 232°
2026-05-04 09:35 50.05667 -112.90090 40111 ft 505 kts 232°
2026-05-04 09:35 50.00853 -112.98057 40110 ft 505 kts 232°
2026-05-04 09:37 49.80197 -113.27933 40108 ft 508 kts 227°
2026-05-04 09:38 49.75002 -113.35338 40117 ft 508 kts 227°
2026-05-04 09:38 49.69804 -113.42737 40110 ft 508 kts 227°
2026-05-04 09:39 49.64601 -113.50117 40102 ft 508 kts 227°
2026-05-04 09:39 49.59391 -113.57480 40086 ft 508 kts 227°
2026-05-04 09:40 49.54173 -113.64829 40102 ft 508 kts 227°
2026-05-04 09:40 49.48992 -113.72105 40099 ft 508 kts 227°
2026-05-04 09:42 49.28052 -114.01293 40083 ft 509 kts 226°
2026-05-04 09:43 49.22795 -114.08565 40076 ft 509 kts 226°
2026-05-04 09:43 49.17545 -114.15798 40031 ft 508 kts 226°
2026-05-04 09:44 49.12287 -114.23033 40041 ft 509 kts 226°
2026-05-04 09:46 48.91183 -114.51843 39992 ft 510 kts 225°
2026-05-04 09:46 48.85889 -114.59020 39970 ft 509 kts 225°
2026-05-04 09:47 48.80594 -114.66160 39973 ft 509 kts 225°
2026-05-04 09:49 48.59337 -114.94684 39911 ft 511 kts 225°
2026-05-04 09:51 48.40642 -115.19484 39874 ft 512 kts 224°
2026-05-04 09:51 48.35278 -115.26552 39862 ft 512 kts 224°
2026-05-04 09:52 48.29907 -115.33612 39869 ft 514 kts 224°
2026-05-04 09:52 48.24521 -115.40664 39854 ft 514 kts 224°
2026-05-04 09:53 48.19130 -115.47708 39841 ft 514 kts 224°
2026-05-04 09:53 48.13735 -115.54735 39839 ft 514 kts 224°
2026-05-04 09:54 48.08328 -115.61757 39829 ft 515 kts 223°
2026-05-04 09:54 48.02907 -115.68778 39814 ft 515 kts 223°
2026-05-04 09:55 47.97483 -115.75779 39808 ft 516 kts 223°
2026-05-04 09:55 47.92048 -115.82770 39810 ft 516 kts 223°
2026-05-04 09:56 47.86610 -115.89749 39819 ft 516 kts 223°
2026-05-04 09:56 47.81176 -115.96712 39819 ft 515 kts 223°
2026-05-04 09:57 47.75739 -116.03654 39816 ft 516 kts 223°
2026-05-04 09:57 47.70283 -116.10595 39809 ft 516 kts 223°
2026-05-04 09:58 47.64817 -116.17533 39821 ft 518 kts 223°
2026-05-04 09:58 47.59335 -116.24472 39824 ft 518 kts 223°
2026-05-04 10:00 47.37356 -116.52096 39864 ft 518 kts 222°
2026-05-04 10:04 46.98660 -116.99967 39891 ft 520 kts 221°
2026-05-04 10:04 46.93101 -117.06766 39901 ft 520 kts 221°
2026-05-04 10:05 46.87547 -117.13543 39902 ft 520 kts 220°
2026-05-04 10:05 46.81989 -117.20303 39873 ft 519 kts 220°
2026-05-04 10:06 46.76438 -117.27037 39875 ft 519 kts 220°
2026-05-04 10:06 46.71825 -117.32619 39871 ft 519 kts 220°
2026-05-04 10:08 46.52339 -117.56058 39856 ft 518 kts 219°
2026-05-04 10:08 46.46785 -117.62696 39847 ft 516 kts 219°
2026-05-04 10:09 46.41240 -117.69308 39856 ft 516 kts 219°
2026-05-04 10:09 46.35684 -117.75914 39853 ft 517 kts 219°
2026-05-04 10:10 46.30130 -117.82499 39843 ft 517 kts 219°
2026-05-04 10:10 46.24564 -117.89080 39852 ft 517 kts 219°
2026-05-04 10:11 46.18993 -117.95649 39843 ft 517 kts 219°
2026-05-04 10:11 46.13424 -118.02201 39846 ft 516 kts 219°
2026-05-04 10:12 46.07855 -118.08734 39828 ft 516 kts 219°
2026-05-04 10:12 46.02273 -118.15263 39860 ft 517 kts 219°
2026-05-04 10:13 45.96681 -118.21788 39855 ft 518 kts 219°
2026-05-04 10:13 45.91075 -118.28310 39854 ft 518 kts 219°
2026-05-04 10:14 45.85476 -118.34806 39859 ft 517 kts 219°
2026-05-04 10:16 45.63074 -118.60631 39893 ft 518 kts 218°
2026-05-04 10:16 45.57446 -118.67076 39891 ft 519 kts 218°
2026-05-04 10:17 45.51823 -118.73497 39890 ft 518 kts 218°
2026-05-04 10:19 45.29291 -118.99061 39910 ft 518 kts 218°
2026-05-04 10:19 45.23636 -119.05438 39922 ft 518 kts 217°
2026-05-04 10:20 45.18011 -119.11762 39933 ft 514 kts 217°
2026-05-04 10:20 45.12444 -119.18003 39930 ft 513 kts 217°
2026-05-04 10:21 45.06844 -119.24267 39928 ft 513 kts 217°
2026-05-04 10:21 45.01230 -119.30530 39921 ft 514 kts 217°
2026-05-04 10:22 44.92797 -119.39908 39925 ft 515 kts 216°
2026-05-04 10:23 44.87170 -119.46145 39921 ft 515 kts 216°
2026-05-04 10:25 44.64435 -119.70694 39916 ft 513 kts 206°
2026-05-04 10:25 44.58018 -119.74998 39915 ft 511 kts 201°
2026-05-04 10:26 44.51482 -119.78906 39906 ft 510 kts 200°
2026-05-04 10:26 44.44939 -119.82749 39896 ft 510 kts 200°
2026-05-04 10:27 44.38394 -119.86617 39906 ft 511 kts 200°
2026-05-04 10:27 44.31847 -119.90502 39906 ft 510 kts 200°
2026-05-04 10:28 44.25322 -119.94375 39907 ft 510 kts 200°
2026-05-04 10:28 44.18800 -119.98237 39907 ft 510 kts 200°
2026-05-04 10:29 44.12256 -120.02100 39913 ft 511 kts 200°
2026-05-04 10:29 44.05718 -120.05949 39911 ft 510 kts 200°
2026-05-04 10:30 43.99178 -120.09790 39911 ft 510 kts 200°
2026-05-04 10:30 43.92634 -120.13626 39911 ft 511 kts 200°
2026-05-04 10:31 43.86074 -120.17459 39910 ft 511 kts 200°
2026-05-04 10:32 43.63136 -120.30795 39911 ft 511 kts 200°
2026-05-04 10:33 43.56583 -120.34584 39917 ft 511 kts 200°
2026-05-04 10:33 43.50037 -120.38361 39915 ft 510 kts 200°
2026-05-04 10:34 43.43482 -120.42136 39918 ft 511 kts 199°
2026-05-04 10:34 43.36913 -120.45908 39919 ft 512 kts 199°
2026-05-04 10:35 43.30335 -120.49676 39921 ft 511 kts 199°
2026-05-04 10:35 43.23776 -120.53425 39925 ft 511 kts 199°
2026-05-04 10:36 43.17215 -120.57166 39926 ft 511 kts 199°
2026-05-04 10:36 43.10656 -120.60897 39928 ft 511 kts 199°
2026-05-04 10:37 43.04099 -120.64618 39941 ft 508 kts 199°
2026-05-04 10:37 42.97578 -120.68313 39941 ft 507 kts 199°
2026-05-04 10:39 42.74748 -120.81172 39931 ft 505 kts 199°
2026-05-04 10:40 42.68288 -120.84793 39920 ft 506 kts 199°
2026-05-04 10:40 42.61769 -120.88437 39909 ft 506 kts 199°
2026-05-04 10:41 42.55261 -120.92066 39917 ft 505 kts 199°
2026-05-04 10:41 42.48775 -120.95678 39913 ft 503 kts 199°
2026-05-04 10:42 42.42307 -120.99271 39903 ft 502 kts 199°
2026-05-04 10:42 42.35835 -121.02857 39905 ft 502 kts 199°
2026-05-04 10:43 42.29369 -121.06431 39907 ft 503 kts 199°
2026-05-04 10:45 42.03431 -121.20694 39900 ft 503 kts 199°
2026-05-04 10:45 41.96939 -121.24243 39898 ft 504 kts 199°
2026-05-04 10:46 41.90445 -121.27786 39897 ft 504 kts 199°
2026-05-04 10:46 41.83951 -121.31321 39896 ft 503 kts 199°
2026-05-04 10:47 41.77479 -121.34838 39900 ft 501 kts 198°
2026-05-04 10:47 41.71029 -121.38334 39916 ft 500 kts 198°
2026-05-04 10:49 41.46343 -121.51644 39947 ft 498 kts 198°
2026-05-04 10:50 41.39907 -121.55096 39961 ft 499 kts 198°
2026-05-04 10:52 41.14271 -121.68774 39969 ft 498 kts 199°
2026-05-04 10:52 41.07833 -121.72190 39972 ft 499 kts 199°
2026-05-04 10:54 40.82041 -121.85806 39971 ft 499 kts 199°
2026-05-04 10:56 40.56291 -121.99288 39975 ft 496 kts 199°
2026-05-04 10:57 40.49873 -122.02631 39978 ft 496 kts 199°
2026-05-04 10:57 40.43448 -122.05969 39977 ft 496 kts 199°
2026-05-04 10:58 40.37083 -122.09270 39977 ft 495 kts 199°
2026-05-04 10:58 40.30683 -122.12583 39992 ft 495 kts 199°
2026-05-04 10:59 40.24275 -122.15894 39998 ft 495 kts 199°
2026-05-04 10:59 40.17872 -122.19194 39998 ft 495 kts 199°
2026-05-04 11:00 40.11466 -122.22471 40002 ft 494 kts 197°
2026-05-04 11:02 39.84724 -122.30713 39985 ft 494 kts 190°
2026-05-04 11:05 39.34538 -122.45039 39984 ft 490 kts 191°
2026-05-04 11:06 39.27876 -122.46925 39985 ft 490 kts 191°
2026-05-04 11:06 39.21212 -122.48808 39985 ft 490 kts 191°
2026-05-04 11:10 38.74816 -122.61873 40003 ft 486 kts 192°
2026-05-04 11:12 38.48398 -122.69316 40007 ft 485 kts 192°
2026-05-04 11:12 38.41832 -122.71157 39823 ft 478 kts 192°
2026-05-04 11:13 38.38634 -122.72057 39054 ft 463 kts 192°
2026-05-04 11:13 38.35495 -122.72942 37569 ft 462 kts 191°
2026-05-04 11:13 38.32338 -122.73830 35769 ft 468 kts 191°
2026-05-04 11:13 38.29150 -122.74721 34078 ft 472 kts 190°
2026-05-04 11:14 38.25928 -122.75621 32088 ft 475 kts 188°
2026-05-04 11:14 38.22692 -122.76285 30199 ft 477 kts 176°
2026-05-04 11:14 38.19436 -122.75867 28398 ft 466 kts 161°
2026-05-04 11:16 37.99786 -122.70017 20358 ft 380 kts 162°
2026-05-04 11:16 37.97232 -122.69273 19128 ft 374 kts 163°
2026-05-04 11:16 37.94755 -122.68554 17908 ft 367 kts 163°
2026-05-04 11:17 37.92290 -122.67836 16601 ft 361 kts 163°
2026-05-04 11:17 37.89945 -122.66832 15427 ft 351 kts 149°
2026-05-04 11:19 37.78374 -122.54898 11994 ft 267 kts 136°
2026-05-04 11:19 37.76943 -122.53377 11795 ft 269 kts 137°
2026-05-04 11:19 37.75511 -122.51858 11476 ft 269 kts 137°
2026-05-04 11:19 37.74080 -122.50345 11162 ft 267 kts 137°
2026-05-04 11:20 37.72651 -122.48836 10974 ft 273 kts 137°
2026-05-04 11:20 37.71165 -122.47248 10958 ft 285 kts 137°
2026-05-04 11:20 37.69645 -122.45623 10946 ft 287 kts 137°
2026-05-04 11:20 37.68121 -122.43998 10940 ft 286 kts 137°
2026-05-04 11:22 37.57983 -122.32032 9067 ft 280 kts 130°
2026-05-04 11:22 37.56689 -122.30235 8239 ft 273 kts 131°
2026-05-04 11:23 37.55417 -122.28475 7516 ft 270 kts 131°
2026-05-04 11:23 37.54161 -122.26742 6791 ft 266 kts 132°
2026-05-04 11:24 37.46989 -122.16487 3183 ft 232 kts 111°
2026-05-04 11:25 37.46852 -122.14604 3129 ft 207 kts 76°
2026-05-04 11:25 37.47501 -122.13079 3059 ft 197 kts 43°
2026-05-04 11:25 37.48660 -122.12209 3025 ft 195 kts 12°
2026-05-04 11:26 37.51143 -122.13004 2986 ft 190 kts 312°
2026-05-04 11:27 37.55386 -122.21639 2056 ft 125 kts 292°
2026-05-04 11:28 37.55795 -122.22594 2059 ft 124 kts 294°
2026-05-04 11:28 37.56215 -122.23555 2054 ft 126 kts 294°
2026-05-04 11:28 37.56636 -122.24525 2009 ft 126 kts 293°
2026-05-04 11:28 37.57058 -122.25503 1878 ft 127 kts 294°
2026-05-04 11:29 37.57476 -122.26479 1724 ft 126 kts 293°
2026-05-04 11:29 37.57887 -122.27457 1530 ft 126 kts 293°
2026-05-04 11:29 37.58297 -122.28439 1371 ft 126 kts 293°
2026-05-04 11:29 37.58708 -122.29416 1183 ft 126 kts 293°
2026-05-04 11:31 37.61573 -122.36265 34 ft 122 kts 296°
2026-05-04 11:33 37.62625 -122.38164 28 ft 0 kts 322°